Wetterdaten: Montag, 08.02.2010
Datum Zeit Temp. Innen Temp. Aussen UV X Diff Temp. Feuchte Inne Feuchte Auss Sonnenschein Luftdruck Regen ab 0,1 Wind Sonnenschein Windben
08.02.2010 00:04 12,2 C 2,2 C 0,0 UV-I 0,0 C 51 % 93 % 0 % 1015,8 hPa 0,0 l/m 0,0 km/h (0 Bft) 0 min 0,0 km/h (0 Bft)
08.02.2010 00:10 12,1 C 2,2 C 0,0 UV-I 0,0 C 51 % 93 % 0 % 1015,8 hPa 0,0 l/m 0,0 km/h (0 Bft) 0 min 0,0 km/h (0 Bft)
08.02.2010 00:12 12,1 C 2,2 C 0,0 UV-I 0,0 C 51 % 93 % 0 % 1015,7 hPa 0,0 l/m 0,0 km/h (0 Bft) 0 min 0,0 km/h (0 Bft)
08.02.2010 00:18 12,1 C 2,2 C 0,0 UV-I 0,0 C 51 % 93 % 0 % 1015,7 hPa 0,0 l/m 0,0 km/h (0 Bft) 0 min 0,0 km/h (0 Bft)
08.02.2010 00:20 12,1 C 2,2 C 0,0 UV-I 0,0 C 51 % 93 % 0 % 1015,7 hPa 0,0 l/m 0,0 km/h (0 Bft) 0 min 0,0 km/h (0 Bft)
08.02.2010 00:22 12,1 C 2,1 C 0,0 UV-I 0,0 C 51 % 93 % 0 % 1015,7 hPa 0,0 l/m 0,0 km/h (0 Bft) 0 min 0,0 km/h (0 Bft)
08.02.2010 00:34 12,1 C 2,2 C 0,0 UV-I 0,0 C 51 % 93 % 0 % 1015,7 hPa 0,0 l/m 0,4 km/h (0 Bft) 0 min 2,4 km/h (1 Bft)
08.02.2010 00:38 12,1 C 2,1 C 0,0 UV-I 0,0 C 51 % 93 % 0 % 1015,7 hPa 0,0 l/m 1,2 km/h (1 Bft) 0 min 3,1 km/h (1 Bft)
08.02.2010 00:42 12,2 C 2,1 C 0,0 UV-I 0,0 C 51 % 93 % 0 % 1015,7 hPa 0,0 l/m 2,0 km/h (1 Bft) 0 min 3,6 km/h (1 Bft)
08.02.2010 00:44 12,1 C 2,1 C 0,0 UV-I 0,0 C 51 % 93 % 0 % 1015,7 hPa 0,0 l/m 2,0 km/h (1 Bft) 0 min 0,0 km/h (0 Bft)
08.02.2010 00:48 12,2 C 2,1 C 0,0 UV-I 0,0 C 51 % 93 % 0 % 1015,7 hPa 0,0 l/m 2,0 km/h (1 Bft) 0 min 3,4 km/h (1 Bft)
08.02.2010 00:54 12,1 C 2,1 C 0,0 UV-I 0,0 C 51 % 93 % 0 % 1016,4 hPa 0,0 l/m 1,2 km/h (1 Bft) 0 min 0,0 km/h (0 Bft)
08.02.2010 01:00 12,1 C 2,1 C 0,0 UV-I 0,0 C 51 % 93 % 0 % 1016,4 hPa 0,0 l/m 0,0 km/h (0 Bft) 0 min 0,0 km/h (0 Bft)
08.02.2010 01:04 12,1 C 2,0 C 0,0 UV-I 0,0 C 51 % 93 % 0 % 1016,4 hPa 0,0 l/m 0,0 km/h (0 Bft) 0 min 0,0 km/h (0 Bft)
08.02.2010 01:06 12,1 C 2,0 C 0,0 UV-I 0,0 C 51 % 93 % 0 % 1016,4 hPa 0,0 l/m 0,0 km/h (0 Bft) 0 min 0,0 km/h (0 Bft)
08.02.2010 01:08 12,1 C 2,0 C 0,0 UV-I 0,0 C 51 % 93 % 0 % 1016,4 hPa 0,0 l/m 0,0 km/h (0 Bft) 0 min 0,0 km/h (0 Bft)
08.02.2010 01:10 12,1 C 2,0 C 0,0 UV-I 0,0 C 51 % 93 % 0 % 1016,4 hPa 0,0 l/m 0,0 km/h (0 Bft) 0 min 0,0 km/h (0 Bft)
08.02.2010 01:12 12,1 C 2,0 C 0,0 UV-I 0,0 C 51 % 93 % 0 % 1015,9 hPa 0,0 l/m 0,0 km/h (0 Bft) 0 min 0,0 km/h (0 Bft)
08.02.2010 01:16 12,1 C 2,0 C 0,0 UV-I 0,0 C 51 % 93 % 0 % 1015,9 hPa 0,0 l/m 0,0 km/h (0 Bft) 0 min 0,0 km/h (0 Bft)
08.02.2010 01:18 12,1 C 2,0 C 0,0 UV-I 0,0 C 51 % 93 % 0 % 1015,9 hPa 0,0 l/m 0,0 km/h (0 Bft) 0 min 0,0 km/h (0 Bft)
08.02.2010 01:20 12,1 C 2,0 C 0,0 UV-I 0,0 C 51 % 93 % 0 % 1015,9 hPa 0,0 l/m 0,0 km/h (0 Bft) 0 min 2,4 km/h (1 Bft)
08.02.2010 01:24 12,1 C 2,0 C 0,0 UV-I 0,0 C 51 % 93 % 0 % 1015,9 hPa 0,0 l/m 0,0 km/h (0 Bft) 0 min 2,4 km/h (1 Bft)
08.02.2010 01:26 12,1 C 2,0 C 0,0 UV-I 0,0 C 51 % 93 % 0 % 1015,9 hPa 0,0 l/m 0,0 km/h (0 Bft) 0 min 0,0 km/h (0 Bft)
08.02.2010 01:28 12,1 C 2,0 C 0,0 UV-I 0,0 C 51 % 93 % 0 % 1015,9 hPa 0,0 l/m 0,0 km/h (0 Bft) 0 min 0,0 km/h (0 Bft)
08.02.2010 01:30 12,1 C 2,0 C 0,0 UV-I 0,0 C 51 % 93 % 0 % 1015,9 hPa 0,0 l/m 0,0 km/h (0 Bft) 0 min 0,0 km/h (0 Bft)
08.02.2010 01:42 12,1 C 2,0 C 0,0 UV-I 0,0 C 51 % 93 % 0 % 1015,5 hPa 0,0 l/m 0,0 km/h (0 Bft) 0 min 0,0 km/h (0 Bft)
08.02.2010 01:44 12,1 C 2,0 C 0,0 UV-I 0,0 C 51 % 93 % 0 % 1015,5 hPa 0,0 l/m 0,0 km/h (0 Bft) 0 min 0,0 km/h (0 Bft)
08.02.2010 01:48 12,1 C 2,1 C 0,0 UV-I 0,0 C 51 % 93 % 0 % 1015,5 hPa 0,0 l/m 0,0 km/h (0 Bft) 0 min 0,0 km/h (0 Bft)
08.02.2010 01:50 12,1 C 2,0 C 0,0 UV-I 0,0 C 51 % 93 % 0 % 1015,5 hPa 0,0 l/m 0,0 km/h (0 Bft) 0 min 0,0 km/h (0 Bft)
08.02.2010 01:52 12,1 C 2,0 C 0,0 UV-I 0,0 C 51 % 93 % 0 % 1015,4 hPa 0,0 l/m 0,0 km/h (0 Bft) 0 min 0,0 km/h (0 Bft)
08.02.2010 01:54 12,1 C 2,0 C 0,0 UV-I 0,0 C 51 % 93 % 0 % 1015,4 hPa 0,0 l/m 0,0 km/h (0 Bft) 0 min 0,0 km/h (0 Bft)
08.02.2010 01:56 12,1 C 2,0 C 0,0 UV-I 0,0 C 51 % 93 % 0 % 1015,4 hPa 0,0 l/m 0,0 km/h (0 Bft) 0 min 0,0 km/h (0 Bft)
08.02.2010 02:02 12,1 C 1,9 C 0,0 UV-I 0,0 C 51 % 93 % 0 % 1015,4 hPa 0,0 l/m 0,0 km/h (0 Bft) 0 min 0,0 km/h (0 Bft)
08.02.2010 02:06 12,1 C 1,9 C 0,0 UV-I 0,0 C 51 % 93 % 0 % 1015,4 hPa 0,0 l/m 0,0 km/h (0 Bft) 0 min 0,0 km/h (0 Bft)
08.02.2010 02:08 12,1 C 1,9 C 0,0 UV-I 0,0 C 51 % 93 % 0 % 1015,4 hPa 0,0 l/m 0,0 km/h (0 Bft) 0 min 0,0 km/h (0 Bft)
08.02.2010 02:16 12,1 C 1,9 C 0,0 UV-I 0,0 C 51 % 93 % 0 % 1015,1 hPa 0,0 l/m 0,4 km/h (0 Bft) 0 min 4,8 km/h (1 Bft)
08.02.2010 02:18 12,1 C 1,9 C 0,0 UV-I 0,0 C 51 % 93 % 0 % 1015,1 hPa 0,0 l/m 0,4 km/h (0 Bft) 0 min 0,0 km/h (0 Bft)
08.02.2010 02:22 12,1 C 1,9 C 0,0 UV-I 0,0 C 51 % 93 % 0 % 1015,1 hPa 0,0 l/m 0,0 km/h (0 Bft) 0 min 0,0 km/h (0 Bft)
08.02.2010 02:28 12,1 C 1,9 C 0,0 UV-I 0,0 C 51 % 93 % 0 % 1015,1 hPa 0,0 l/m 0,0 km/h (0 Bft) 0 min 0,0 km/h (0 Bft)
08.02.2010 02:30 11,9 C 1,8 C 0,0 UV-I 0,0 C 51 % 92 % 0 % 1015,1 hPa 0,0 l/m 0,0 km/h (0 Bft) 0 min 0,0 km/h (0 Bft)
08.02.2010 02:32 11,9 C 1,8 C 0,0 UV-I 0,0 C 51 % 92 % 0 % 1015,1 hPa 0,0 l/m 0,0 km/h (0 Bft) 0 min 0,0 km/h (0 Bft)
08.02.2010 02:38 12,1 C 1,7 C 0,0 UV-I 0,0 C 51 % 92 % 0 % 1015,1 hPa 0,0 l/m 0,0 km/h (0 Bft) 0 min 0,0 km/h (0 Bft)
08.02.2010 02:40 12,1 C 1,7 C 0,0 UV-I 0,0 C 51 % 93 % 0 % 1015,1 hPa 0,0 l/m 0,0 km/h (0 Bft) 0 min 0,0 km/h (0 Bft)
08.02.2010 02:42 11,9 C 1,7 C 0,0 UV-I 0,0 C 51 % 93 % 0 % 1015,1 hPa 0,0 l/m 0,0 km/h (0 Bft) 0 min 0,0 km/h (0 Bft)
08.02.2010 02:44 11,9 C 1,7 C 0,0 UV-I 0,0 C 51 % 93 % 0 % 1015,1 hPa 0,0 l/m 0,0 km/h (0 Bft) 0 min 0,0 km/h (0 Bft)
08.02.2010 02:48 11,9 C 1,7 C 0,0 UV-I 0,0 C 51 % 93 % 0 % 1015,1 hPa 0,0 l/m 0,0 km/h (0 Bft) 0 min 0,0 km/h (0 Bft)
08.02.2010 02:58 11,9 C 1,6 C 0,0 UV-I 0,0 C 51 % 92 % 0 % 1014,6 hPa 0,0 l/m 0,0 km/h (0 Bft) 0 min 0,0 km/h (0 Bft)
08.02.2010 03:00 11,9 C 1,6 C 0,0 UV-I 0,0 C 50 % 93 % 0 % 1014,6 hPa 0,0 l/m 0,4 km/h (0 Bft) 0 min 3,1 km/h (1 Bft)
08.02.2010 03:02 11,9 C 1,6 C 0,0 UV-I 0,0 C 51 % 93 % 0 % 1014,6 hPa 0,0 l/m 0,4 km/h (0 Bft) 0 min 3,1 km/h (1 Bft)
08.02.2010 03:08 11,9 C 1,6 C 0,0 UV-I 0,0 C 50 % 93 % 0 % 1014,6 hPa 0,0 l/m 0,8 km/h (0 Bft) 0 min 2,4 km/h (1 Bft)
08.02.2010 03:16 11,9 C 1,6 C 0,0 UV-I 0,0 C 51 % 93 % 0 % 1014,1 hPa 0,0 l/m 0,4 km/h (0 Bft) 0 min 0,0 km/h (0 Bft)
08.02.2010 03:18 12,0 C 1,6 C 0,0 UV-I 0,0 C 50 % 93 % 0 % 1014,1 hPa 0,0 l/m 0,4 km/h (0 Bft) 0 min 0,0 km/h (0 Bft)
08.02.2010 03:22 12,0 C 1,5 C 0,0 UV-I 0,0 C 51 % 93 % 0 % 1014,1 hPa 0,0 l/m 0,4 km/h (0 Bft) 0 min 2,9 km/h (1 Bft)
08.02.2010 03:24 12,0 C 1,5 C 0,0 UV-I 0,0 C 50 % 93 % 0 % 1014,1 hPa 0,0 l/m 0,8 km/h (0 Bft) 0 min 2,4 km/h (1 Bft)
08.02.2010 03:26 12,0 C 1,5 C 0,0 UV-I 0,0 C 50 % 93 % 0 % 1014,1 hPa 0,0 l/m 1,2 km/h (1 Bft) 0 min 0,0 km/h (0 Bft)
08.02.2010 03:28 12,0 C 1,5 C 0,0 UV-I 0,0 C 50 % 93 % 0 % 1014,1 hPa 0,0 l/m 1,2 km/h (1 Bft) 0 min 2,6 km/h (1 Bft)
08.02.2010 03:36 12,0 C 1,4 C 0,0 UV-I 0,0 C 50 % 93 % 0 % 1013,8 hPa 0,0 l/m 0,4 km/h (0 Bft) 0 min 2,6 km/h (1 Bft)
08.02.2010 03:48 12,0 C 1,4 C 0,0 UV-I 0,0 C 50 % 93 % 0 % 1013,8 hPa 0,0 l/m 1,6 km/h (1 Bft) 0 min 5,1 km/h (1 Bft)
08.02.2010 03:50 12,0 C 1,5 C 0,0 UV-I 0,0 C 50 % 93 % 0 % 1013,8 hPa 0,0 l/m 1,6 km/h (1 Bft) 0 min 0,0 km/h (0 Bft)
08.02.2010 03:54 12,0 C 1,4 C 0,0 UV-I 0,0 C 50 % 93 % 0 % 1013,8 hPa 0,0 l/m 1,2 km/h (1 Bft) 0 min 0,0 km/h (0 Bft)
08.02.2010 03:58 12,0 C 1,3 C 0,0 UV-I 0,0 C 50 % 93 % 0 % 1013,8 hPa 0,0 l/m 0,4 km/h (0 Bft) 0 min 0,0 km/h (0 Bft)
08.02.2010 04:00 12,0 C 1,3 C 0,0 UV-I 0,0 C 50 % 93 % 0 % 1013,8 hPa 0,0 l/m 0,4 km/h (0 Bft) 0 min 0,0 km/h (0 Bft)
08.02.2010 04:06 12,0 C 1,3 C 0,0 UV-I 0,0 C 50 % 93 % 0 % 1013,8 hPa 0,0 l/m 0,4 km/h (0 Bft) 0 min 0,0 km/h (0 Bft)
08.02.2010 04:09 12,0 C 1,3 C 0,0 UV-I 0,0 C 50 % 93 % 0 % 1013,8 hPa 0,0 l/m 0,0 km/h (0 Bft) 0 min 0,0 km/h (0 Bft)
08.02.2010 04:14 12,0 C 1,3 C 0,0 UV-I 0,0 C 50 % 93 % 0 % 1013,6 hPa 0,0 l/m 0,0 km/h (0 Bft) 0 min 2,6 km/h (1 Bft)
08.02.2010 04:18 12,0 C 1,2 C 0,0 UV-I 0,0 C 50 % 93 % 0 % 1013,6 hPa 0,0 l/m 0,4 km/h (0 Bft) 0 min 0,0 km/h (0 Bft)
08.02.2010 04:20 12,0 C 1,2 C 0,0 UV-I 0,0 C 50 % 93 % 0 % 1013,6 hPa 0,0 l/m 0,4 km/h (0 Bft) 0 min 0,0 km/h (0 Bft)
08.02.2010 04:22 12,0 C 1,2 C 0,0 UV-I 0,0 C 50 % 93 % 0 % 1013,6 hPa 0,0 l/m 0,4 km/h (0 Bft) 0 min 0,0 km/h (0 Bft)
08.02.2010 04:24 11,8 C 1,2 C 0,0 UV-I 0,0 C 50 % 93 % 0 % 1013,6 hPa 0,0 l/m 0,4 km/h (0 Bft) 0 min 0,0 km/h (0 Bft)
08.02.2010 04:26 12,0 C 1,3 C 0,0 UV-I 0,0 C 50 % 93 % 0 % 1013,6 hPa 0,0 l/m 0,4 km/h (0 Bft) 0 min 0,0 km/h (0 Bft)
08.02.2010 04:28 12,0 C 1,3 C 0,0 UV-I 0,0 C 50 % 93 % 0 % 1013,6 hPa 0,0 l/m 0,0 km/h (0 Bft) 0 min 0,0 km/h (0 Bft)
08.02.2010 04:30 12,0 C 1,2 C 0,0 UV-I 0,0 C 50 % 93 % 0 % 1013,6 hPa 0,0 l/m 0,0 km/h (0 Bft) 0 min 0,0 km/h (0 Bft)
08.02.2010 04:32 12,0 C 1,2 C 0,0 UV-I 0,0 C 50 % 93 % 0 % 1013,2 hPa 0,0 l/m 0,0 km/h (0 Bft) 0 min 0,0 km/h (0 Bft)
08.02.2010 04:34 11,8 C 1,2 C 0,0 UV-I 0,0 C 50 % 93 % 0 % 1013,2 hPa 0,0 l/m 0,0 km/h (0 Bft) 0 min 0,0 km/h (0 Bft)
08.02.2010 04:36 11,8 C 1,1 C 0,0 UV-I 0,0 C 50 % 93 % 0 % 1013,2 hPa 0,0 l/m 0,0 km/h (0 Bft) 0 min 0,0 km/h (0 Bft)
08.02.2010 04:38 12,0 C 1,1 C 0,0 UV-I 0,0 C 50 % 93 % 0 % 1013,2 hPa 0,0 l/m 0,0 km/h (0 Bft) 0 min 0,0 km/h (0 Bft)
08.02.2010 04:40 12,0 C 1,1 C 0,0 UV-I 0,0 C 50 % 93 % 0 % 1013,2 hPa 0,0 l/m 0,0 km/h (0 Bft) 0 min 0,0 km/h (0 Bft)
08.02.2010 04:42 11,8 C 1,0 C 0,0 UV-I 0,0 C 50 % 93 % 0 % 1013,2 hPa 0,0 l/m 0,0 km/h (0 Bft) 0 min 0,0 km/h (0 Bft)
08.02.2010 04:44 11,8 C 1,1 C 0,0 UV-I 0,0 C 50 % 93 % 0 % 1013,2 hPa 0,0 l/m 0,0 km/h (0 Bft) 0 min 0,0 km/h (0 Bft)
08.02.2010 04:46 11,8 C 1,0 C 0,0 UV-I 0,0 C 50 % 93 % 0 % 1013,2 hPa 0,0 l/m 0,0 km/h (0 Bft) 0 min 0,0 km/h (0 Bft)
08.02.2010 04:48 11,9 C 1,1 C 0,0 UV-I 0,0 C 50 % 93 % 0 % 1013,2 hPa 0,0 l/m 0,0 km/h (0 Bft) 0 min 0,0 km/h (0 Bft)
08.02.2010 04:50 12,0 C 1,1 C 0,0 UV-I 0,0 C 50 % 93 % 0 % 1013,2 hPa 0,0 l/m 0,0 km/h (0 Bft) 0 min 2,4 km/h (1 Bft)
08.02.2010 04:52 12,0 C 1,1 C 0,0 UV-I 0,0 C 50 % 93 % 0 % 1012,8 hPa 0,0 l/m 0,0 km/h (0 Bft) 0 min 2,4 km/h (1 Bft)
08.02.2010 04:54 11,8 C 1,1 C 0,0 UV-I 0,0 C 50 % 93 % 0 % 1012,8 hPa 0,0 l/m 0,4 km/h (0 Bft) 0 min 2,4 km/h (1 Bft)
08.02.2010 04:56 11,8 C 1,0 C 0,0 UV-I 0,0 C 50 % 93 % 0 % 1012,8 hPa 0,0 l/m 0,8 km/h (0 Bft) 0 min 2,9 km/h (1 Bft)
08.02.2010 04:58 11,8 C 0,9 C 0,0 UV-I 0,0 C 50 % 93 % 0 % 1012,8 hPa 0,0 l/m 0,8 km/h (0 Bft) 0 min 2,9 km/h (1 Bft)
08.02.2010 05:00 11,8 C 0,9 C 0,0 UV-I 0,0 C 50 % 93 % 0 % 1012,8 hPa 0,0 l/m 1,2 km/h (1 Bft) 0 min 3,1 km/h (1 Bft)
08.02.2010 05:02 11,8 C 0,9 C 0,0 UV-I 0,0 C 50 % 93 % 0 % 1012,8 hPa 0,0 l/m 0,8 km/h (0 Bft) 0 min 3,1 km/h (1 Bft)
08.02.2010 05:04 11,8 C 0,9 C 0,0 UV-I 0,0 C 50 % 93 % 0 % 1012,8 hPa 0,0 l/m 0,8 km/h (0 Bft) 0 min 0,0 km/h (0 Bft)
08.02.2010 05:06 11,8 C 0,9 C 0,0 UV-I 0,0 C 50 % 93 % 0 % 1012,8 hPa 0,0 l/m 0,4 km/h (0 Bft) 0 min 0,0 km/h (0 Bft)
08.02.2010 05:08 11,9 C 0,8 C 0,0 UV-I 0,0 C 50 % 93 % 0 % 1012,8 hPa 0,0 l/m 0,4 km/h (0 Bft) 0 min 0,0 km/h (0 Bft)
08.02.2010 05:10 11,8 C 0,8 C 0,0 UV-I 0,0 C 50 % 93 % 0 % 1012,8 hPa 0,0 l/m 0,4 km/h (0 Bft) 0 min 0,0 km/h (0 Bft)
08.02.2010 05:12 11,8 C 0,8 C 0,0 UV-I 0,0 C 50 % 93 % 0 % 1012,4 hPa 0,0 l/m 0,0 km/h (0 Bft) 0 min 0,0 km/h (0 Bft)
08.02.2010 05:14 11,9 C 0,8 C 0,0 UV-I 0,0 C 50 % 93 % 0 % 1012,4 hPa 0,0 l/m 0,0 km/h (0 Bft) 0 min 0,0 km/h (0 Bft)
08.02.2010 05:16 11,9 C 0,8 C 0,0 UV-I 0,0 C 50 % 93 % 0 % 1012,4 hPa 0,0 l/m 0,0 km/h (0 Bft) 0 min 0,0 km/h (0 Bft)
08.02.2010 05:18 11,9 C 0,8 C 0,0 UV-I 0,0 C 50 % 93 % 0 % 1012,4 hPa 0,0 l/m 0,0 km/h (0 Bft) 0 min 0,0 km/h (0 Bft)
08.02.2010 05:20 11,9 C 0,8 C 0,0 UV-I 0,0 C 50 % 93 % 0 % 1012,4 hPa 0,0 l/m 0,0 km/h (0 Bft) 0 min 0,0 km/h (0 Bft)
08.02.2010 05:22 11,9 C 0,8 C 0,0 UV-I 0,0 C 50 % 93 % 0 % 1012,4 hPa 0,0 l/m 0,0 km/h (0 Bft) 0 min 0,0 km/h (0 Bft)
08.02.2010 05:24 11,9 C 0,8 C 0,0 UV-I 0,0 C 50 % 93 % 0 % 1012,4 hPa 0,0 l/m 0,0 km/h (0 Bft) 0 min 0,0 km/h (0 Bft)
08.02.2010 05:26 11,9 C 0,8 C 0,0 UV-I 0,0 C 50 % 93 % 0 % 1012,4 hPa 0,0 l/m 0,0 km/h (0 Bft) 0 min 0,0 km/h (0 Bft)
08.02.2010 05:28 11,9 C 0,7 C 0,0 UV-I 0,0 C 50 % 93 % 0 % 1012,4 hPa 0,0 l/m 0,0 km/h (0 Bft) 0 min 0,0 km/h (0 Bft)
08.02.2010 05:30 11,9 C 0,7 C 0,0 UV-I 0,0 C 50 % 93 % 0 % 1012,4 hPa 0,0 l/m 0,0 km/h (0 Bft) 0 min 0,0 km/h (0 Bft)
08.02.2010 05:32 11,9 C 0,7 C 0,0 UV-I 0,0 C 50 % 93 % 0 % 1012,4 hPa 0,0 l/m 0,0 km/h (0 Bft) 0 min 0,0 km/h (0 Bft)
08.02.2010 05:34 11,8 C 0,7 C 0,0 UV-I 0,0 C 50 % 93 % 0 % 1012,4 hPa 0,0 l/m 0,0 km/h (0 Bft) 0 min 3,1 km/h (1 Bft)
08.02.2010 05:36 11,9 C 0,7 C 0,0 UV-I 0,0 C 50 % 93 % 0 % 1012,4 hPa 0,0 l/m 0,0 km/h (0 Bft) 0 min 3,1 km/h (1 Bft)
08.02.2010 05:38 11,9 C 0,7 C 0,0 UV-I 0,0 C 50 % 93 % 0 % 1012,4 hPa 0,0 l/m 0,0 km/h (0 Bft) 0 min 0,0 km/h (0 Bft)
08.02.2010 05:40 11,9 C 0,7 C 0,0 UV-I 0,0 C 50 % 93 % 0 % 1012,4 hPa 0,0 l/m 0,0 km/h (0 Bft) 0 min 0,0 km/h (0 Bft)
08.02.2010 05:42 11,9 C 0,7 C 0,0 UV-I 0,0 C 50 % 93 % 0 % 1012,4 hPa 0,0 l/m 0,0 km/h (0 Bft) 0 min 0,0 km/h (0 Bft)
08.02.2010 05:44 11,9 C 0,7 C 0,0 UV-I 0,0 C 50 % 93 % 0 % 1012,4 hPa 0,0 l/m 0,4 km/h (0 Bft) 0 min 0,0 km/h (0 Bft)
08.02.2010 05:46 11,9 C 0,6 C 0,0 UV-I 0,0 C 50 % 93 % 0 % 1012,4 hPa 0,0 l/m 0,0 km/h (0 Bft) 0 min 0,0 km/h (0 Bft)
08.02.2010 05:48 11,9 C 0,7 C 0,0 UV-I 0,0 C 50 % 93 % 0 % 1012,4 hPa 0,0 l/m 0,0 km/h (0 Bft) 0 min 0,0 km/h (0 Bft)
08.02.2010 05:50 11,8 C 0,7 C 0,0 UV-I 0,0 C 50 % 93 % 0 % 1012,4 hPa 0,0 l/m 0,0 km/h (0 Bft) 0 min 0,0 km/h (0 Bft)
08.02.2010 05:52 11,8 C 0,7 C 0,0 UV-I 0,0 C 50 % 93 % 0 % 1012,2 hPa 0,0 l/m 0,0 km/h (0 Bft) 0 min 0,0 km/h (0 Bft)
08.02.2010 05:54 11,9 C 0,6 C 0,0 UV-I 0,0 C 49 % 93 % 0 % 1012,2 hPa 0,0 l/m 0,0 km/h (0 Bft) 0 min 0,0 km/h (0 Bft)
08.02.2010 05:56 11,8 C 0,7 C 0,0 UV-I 0,0 C 50 % 93 % 0 % 1012,2 hPa 0,0 l/m 0,0 km/h (0 Bft) 0 min 0,0 km/h (0 Bft)
08.02.2010 05:58 11,9 C 0,7 C 0,0 UV-I 0,0 C 49 % 93 % 0 % 1012,2 hPa 0,0 l/m 0,0 km/h (0 Bft) 0 min 0,0 km/h (0 Bft)
08.02.2010 06:00 11,8 C 0,7 C 0,0 UV-I 0,0 C 49 % 93 % 0 % 1012,2 hPa 0,0 l/m 0,0 km/h (0 Bft) 0 min 0,0 km/h (0 Bft)
08.02.2010 06:02 11,8 C 0,7 C 0,0 UV-I 0,0 C 50 % 93 % 0 % 1012,2 hPa 0,0 l/m 0,0 km/h (0 Bft) 0 min 0,0 km/h (0 Bft)
08.02.2010 06:04 11,8 C 0,7 C 0,0 UV-I 0,0 C 49 % 93 % 0 % 1012,2 hPa 0,0 l/m 0,0 km/h (0 Bft) 0 min 0,0 km/h (0 Bft)
08.02.2010 06:06 11,8 C 0,7 C 0,0 UV-I 0,0 C 49 % 93 % 0 % 1012,2 hPa 0,0 l/m 0,0 km/h (0 Bft) 0 min 0,0 km/h (0 Bft)
08.02.2010 06:08 11,8 C 0,7 C 0,0 UV-I 0,0 C 49 % 93 % 0 % 1012,2 hPa 0,0 l/m 0,0 km/h (0 Bft) 0 min 0,0 km/h (0 Bft)
08.02.2010 06:10 11,8 C 0,7 C 0,0 UV-I 0,0 C 49 % 93 % 0 % 1012,2 hPa 0,0 l/m 0,0 km/h (0 Bft) 0 min 0,0 km/h (0 Bft)
08.02.2010 06:12 11,8 C 0,7 C 0,0 UV-I 0,0 C 49 % 93 % 0 % 1011,8 hPa 0,0 l/m 0,0 km/h (0 Bft) 0 min 0,0 km/h (0 Bft)
08.02.2010 06:14 11,8 C 0,7 C 0,0 UV-I 0,0 C 49 % 93 % 0 % 1011,8 hPa 0,0 l/m 0,4 km/h (0 Bft) 0 min 2,6 km/h (1 Bft)
08.02.2010 06:16 11,8 C 0,6 C 0,0 UV-I 0,0 C 49 % 93 % 0 % 1011,8 hPa 0,0 l/m 0,4 km/h (0 Bft) 0 min 2,6 km/h (1 Bft)
08.02.2010 06:18 11,8 C 0,7 C 0,0 UV-I 0,0 C 49 % 93 % 0 % 1011,8 hPa 0,0 l/m 0,4 km/h (0 Bft) 0 min 0,0 km/h (0 Bft)
08.02.2010 06:20 11,8 C 0,6 C 0,0 UV-I 0,0 C 49 % 93 % 0 % 1011,8 hPa 0,0 l/m 0,4 km/h (0 Bft) 0 min 0,0 km/h (0 Bft)
08.02.2010 06:22 11,8 C 0,6 C 0,0 UV-I 0,0 C 49 % 93 % 0 % 1011,8 hPa 0,0 l/m 0,4 km/h (0 Bft) 0 min 0,0 km/h (0 Bft)
08.02.2010 06:24 11,8 C 0,6 C 0,0 UV-I 0,0 C 49 % 93 % 0 % 1011,8 hPa 0,0 l/m 0,4 km/h (0 Bft) 0 min 0,0 km/h (0 Bft)
08.02.2010 06:26 11,8 C 0,5 C 0,0 UV-I 0,0 C 49 % 93 % 0 % 1011,8 hPa 0,0 l/m 0,0 km/h (0 Bft) 0 min 0,0 km/h (0 Bft)
08.02.2010 06:30 11,8 C 0,5 C 0,0 UV-I 0,0 C 49 % 93 % 0 % 1011,8 hPa 0,0 l/m 0,0 km/h (0 Bft) 0 min 0,0 km/h (0 Bft)
08.02.2010 06:32 11,8 C 0,5 C 0,0 UV-I 0,0 C 49 % 93 % 0 % 1011,8 hPa 0,0 l/m 0,0 km/h (0 Bft) 0 min 0,0 km/h (0 Bft)
08.02.2010 06:34 11,8 C 0,5 C 0,0 UV-I 0,0 C 49 % 93 % 0 % 1011,8 hPa 0,0 l/m 0,0 km/h (0 Bft) 0 min 0,0 km/h (0 Bft)
08.02.2010 06:36 11,8 C 0,5 C 0,0 UV-I 0,0 C 49 % 93 % 0 % 1011,8 hPa 0,0 l/m 0,0 km/h (0 Bft) 0 min 0,0 km/h (0 Bft)
08.02.2010 06:38 11,8 C 0,5 C 0,0 UV-I 0,0 C 49 % 93 % 0 % 1011,8 hPa 0,0 l/m 0,0 km/h (0 Bft) 0 min 0,0 km/h (0 Bft)
08.02.2010 06:40 11,8 C 0,5 C 0,0 UV-I 0,0 C 49 % 93 % 0 % 1011,8 hPa 0,0 l/m 0,0 km/h (0 Bft) 0 min 0,0 km/h (0 Bft)
08.02.2010 06:42 11,8 C 0,5 C 0,0 UV-I 0,0 C 49 % 93 % 0 % 1011,8 hPa 0,0 l/m 0,0 km/h (0 Bft) 0 min 0,0 km/h (0 Bft)
08.02.2010 06:44 11,8 C 0,5 C 0,0 UV-I 0,0 C 49 % 93 % 0 % 1011,8 hPa 0,0 l/m 0,0 km/h (0 Bft) 0 min 0,0 km/h (0 Bft)
08.02.2010 06:46 11,8 C 0,5 C 0,0 UV-I 0,0 C 49 % 93 % 0 % 1011,8 hPa 0,0 l/m 0,0 km/h (0 Bft) 0 min 0,0 km/h (0 Bft)
08.02.2010 06:48 11,8 C 0,5 C 0,0 UV-I 0,0 C 49 % 93 % 0 % 1011,8 hPa 0,0 l/m 0,4 km/h (0 Bft) 0 min 0,0 km/h (0 Bft)
08.02.2010 06:50 11,8 C 0,5 C 0,0 UV-I 0,0 C 49 % 93 % 0 % 1011,8 hPa 0,0 l/m 0,4 km/h (0 Bft) 0 min 2,4 km/h (1 Bft)
08.02.2010 06:52 11,8 C 0,5 C 0,0 UV-I 0,0 C 49 % 93 % 0 % 1011,8 hPa 0,0 l/m 0,4 km/h (0 Bft) 0 min 2,4 km/h (1 Bft)
08.02.2010 06:54 11,8 C 0,4 C 0,0 UV-I 0,0 C 49 % 93 % 0 % 1011,8 hPa 0,0 l/m 0,4 km/h (0 Bft) 0 min 0,0 km/h (0 Bft)
08.02.2010 06:56 11,8 C 0,4 C 0,0 UV-I 0,0 C 49 % 93 % 0 % 1011,8 hPa 0,0 l/m 0,8 km/h (0 Bft) 0 min 0,0 km/h (0 Bft)
08.02.2010 06:58 11,8 C 0,4 C 0,0 UV-I 0,0 C 49 % 93 % 0 % 1011,8 hPa 0,0 l/m 0,4 km/h (0 Bft) 0 min 0,0 km/h (0 Bft)
08.02.2010 07:00 11,6 C 0,4 C 0,0 UV-I 0,0 C 49 % 93 % 0 % 1011,8 hPa 0,0 l/m 0,4 km/h (0 Bft) 0 min 0,0 km/h (0 Bft)
08.02.2010 07:02 11,6 C 0,4 C 0,0 UV-I 0,0 C 49 % 93 % 0 % 1011,8 hPa 0,0 l/m 0,4 km/h (0 Bft) 0 min 0,0 km/h (0 Bft)
08.02.2010 07:04 11,6 C 0,4 C 0,0 UV-I 0,0 C 49 % 93 % 0 % 1011,8 hPa 0,0 l/m 0,4 km/h (0 Bft) 0 min 0,0 km/h (0 Bft)
08.02.2010 07:06 11,6 C 0,4 C 0,0 UV-I 0,0 C 49 % 93 % 0 % 1011,8 hPa 0,0 l/m 0,4 km/h (0 Bft) 0 min 0,0 km/h (0 Bft)
08.02.2010 07:08 11,6 C 0,4 C 0,0 UV-I 0,0 C 49 % 93 % 0 % 1011,8 hPa 0,0 l/m 0,0 km/h (0 Bft) 0 min 0,0 km/h (0 Bft)
08.02.2010 07:10 11,6 C 0,4 C 0,0 UV-I 0,0 C 49 % 93 % 0 % 1011,8 hPa 0,0 l/m 0,0 km/h (0 Bft) 0 min 0,0 km/h (0 Bft)
08.02.2010 07:12 11,6 C 0,4 C 0,0 UV-I 0,0 C 49 % 93 % 0 % 1011,4 hPa 0,0 l/m 0,0 km/h (0 Bft) 0 min 0,0 km/h (0 Bft)
08.02.2010 07:14 11,6 C 0,4 C 0,0 UV-I 0,0 C 49 % 93 % 0 % 1011,4 hPa 0,0 l/m 0,0 km/h (0 Bft) 0 min 0,0 km/h (0 Bft)
08.02.2010 07:16 11,6 C 0,4 C 0,0 UV-I 0,0 C 49 % 93 % 0 % 1011,4 hPa 0,0 l/m 0,0 km/h (0 Bft) 0 min 0,0 km/h (0 Bft)
08.02.2010 07:18 11,6 C 0,4 C 0,0 UV-I 0,0 C 49 % 93 % 0 % 1011,4 hPa 0,0 l/m 0,0 km/h (0 Bft) 0 min 0,0 km/h (0 Bft)
08.02.2010 07:20 11,6 C 0,4 C 0,0 UV-I 0,0 C 49 % 93 % 0 % 1011,4 hPa 0,0 l/m 0,0 km/h (0 Bft) 0 min 0,0 km/h (0 Bft)
08.02.2010 07:22 11,6 C 0,5 C 0,0 UV-I 0,0 C 49 % 93 % 0 % 1011,4 hPa 0,0 l/m 0,0 km/h (0 Bft) 0 min 0,0 km/h (0 Bft)
08.02.2010 07:24 11,6 C 0,4 C 0,0 UV-I 0,0 C 49 % 93 % 0 % 1011,4 hPa 0,0 l/m 0,0 km/h (0 Bft) 0 min 0,0 km/h (0 Bft)
08.02.2010 07:26 11,6 C 0,5 C 0,0 UV-I 0,0 C 49 % 93 % 0 % 1011,4 hPa 0,0 l/m 0,0 km/h (0 Bft) 0 min 2,6 km/h (1 Bft)
08.02.2010 07:28 11,6 C 0,4 C 0,0 UV-I 0,0 C 49 % 93 % 0 % 1011,4 hPa 0,0 l/m 0,0 km/h (0 Bft) 0 min 2,6 km/h (1 Bft)
08.02.2010 07:30 11,6 C 0,5 C 0,0 UV-I 0,0 C 49 % 93 % 0 % 1011,4 hPa 0,0 l/m 0,0 km/h (0 Bft) 0 min 0,0 km/h (0 Bft)
08.02.2010 07:32 11,6 C 0,5 C 0,0 UV-I 0,0 C 49 % 93 % 0 % 1011,4 hPa 0,0 l/m 0,0 km/h (0 Bft) 0 min 0,0 km/h (0 Bft)
08.02.2010 07:34 11,6 C 0,5 C 0,0 UV-I 0,0 C 49 % 93 % 0 % 1011,4 hPa 0,0 l/m 0,0 km/h (0 Bft) 0 min 0,0 km/h (0 Bft)
08.02.2010 07:36 11,6 C 0,4 C 0,0 UV-I 0,0 C 49 % 93 % 0 % 1011,4 hPa 0,0 l/m 0,4 km/h (0 Bft) 0 min 2,4 km/h (1 Bft)
08.02.2010 07:38 11,6 C 0,4 C 0,0 UV-I 0,0 C 49 % 93 % 0 % 1011,4 hPa 0,0 l/m 0,0 km/h (0 Bft) 0 min 2,4 km/h (1 Bft)
08.02.2010 07:40 11,6 C 0,5 C 0,0 UV-I 0,0 C 49 % 93 % 0 % 1011,4 hPa 0,0 l/m 0,0 km/h (0 Bft) 0 min 0,0 km/h (0 Bft)
08.02.2010 07:42 11,6 C 0,4 C 0,0 UV-I 0,0 C 49 % 93 % 0 % 1011,4 hPa 0,0 l/m 0,0 km/h (0 Bft) 0 min 0,0 km/h (0 Bft)
08.02.2010 07:44 11,6 C 0,4 C 0,0 UV-I 0,0 C 49 % 93 % 0 % 1011,4 hPa 0,0 l/m 0,4 km/h (0 Bft) 0 min 2,6 km/h (1 Bft)
08.02.2010 07:46 11,6 C 0,4 C 0,0 UV-I 0,0 C 49 % 93 % 0 % 1011,4 hPa 0,0 l/m 0,4 km/h (0 Bft) 0 min 2,6 km/h (1 Bft)
08.02.2010 07:48 11,6 C 0,4 C 0,0 UV-I 0,0 C 49 % 93 % 0 % 1011,4 hPa 0,0 l/m 0,0 km/h (0 Bft) 0 min 0,0 km/h (0 Bft)
08.02.2010 07:50 11,6 C 0,4 C 0,0 UV-I 0,0 C 49 % 93 % 0 % 1011,4 hPa 0,0 l/m 0,0 km/h (0 Bft) 0 min 0,0 km/h (0 Bft)
08.02.2010 07:52 11,6 C 0,4 C 0,0 UV-I 0,0 C 49 % 93 % 0 % 1011,5 hPa 0,0 l/m 0,4 km/h (0 Bft) 0 min 0,0 km/h (0 Bft)
08.02.2010 07:54 11,7 C 0,4 C 0,0 UV-I 0,0 C 49 % 93 % 0 % 1011,5 hPa 0,0 l/m 0,0 km/h (0 Bft) 0 min 0,0 km/h (0 Bft)
08.02.2010 07:56 11,7 C 0,3 C 0,0 UV-I 0,0 C 49 % 93 % 0 % 1011,5 hPa 0,0 l/m 0,0 km/h (0 Bft) 0 min 0,0 km/h (0 Bft)
08.02.2010 07:58 11,7 C 0,4 C 0,0 UV-I 0,0 C 49 % 93 % 0 % 1011,5 hPa 0,0 l/m 0,0 km/h (0 Bft) 0 min 0,0 km/h (0 Bft)
08.02.2010 08:00 11,7 C 0,4 C 0,0 UV-I 0,0 C 49 % 93 % 0 % 1011,5 hPa 0,0 l/m 0,0 km/h (0 Bft) 0 min 0,0 km/h (0 Bft)
08.02.2010 08:02 11,7 C 0,4 C 0,0 UV-I 0,0 C 49 % 93 % 0 % 1011,5 hPa 0,0 l/m 0,0 km/h (0 Bft) 0 min 3,4 km/h (1 Bft)
08.02.2010 08:04 11,7 C 0,4 C 0,0 UV-I 0,0 C 49 % 93 % 0 % 1011,5 hPa 0,0 l/m 0,0 km/h (0 Bft) 0 min 3,4 km/h (1 Bft)
08.02.2010 08:06 11,7 C 0,3 C 0,0 UV-I 0,0 C 49 % 93 % 0 % 1011,5 hPa 0,0 l/m 0,0 km/h (0 Bft) 0 min 0,0 km/h (0 Bft)
08.02.2010 08:08 11,6 C 0,3 C 0,0 UV-I 0,0 C 49 % 93 % 0 % 1011,5 hPa 0,0 l/m 0,4 km/h (0 Bft) 0 min 0,0 km/h (0 Bft)
08.02.2010 08:10 11,7 C 0,3 C 0,0 UV-I 0,0 C 49 % 93 % 0 % 1011,5 hPa 0,0 l/m 0,4 km/h (0 Bft) 0 min 0,0 km/h (0 Bft)
08.02.2010 08:12 11,7 C 0,3 C 0,0 UV-I 0,0 C 49 % 93 % 0 % 1011,4 hPa 0,0 l/m 0,4 km/h (0 Bft) 0 min 0,0 km/h (0 Bft)
08.02.2010 08:14 11,7 C 0,4 C 0,0 UV-I 0,0 C 49 % 93 % 0 % 1011,4 hPa 0,0 l/m 0,4 km/h (0 Bft) 0 min 2,4 km/h (1 Bft)
08.02.2010 08:16 11,7 C 0,3 C 0,0 UV-I 0,0 C 49 % 93 % 0 % 1011,4 hPa 0,0 l/m 0,4 km/h (0 Bft) 0 min 2,4 km/h (1 Bft)
08.02.2010 08:18 11,6 C 0,3 C 0,0 UV-I 0,0 C 49 % 93 % 0 % 1011,4 hPa 0,0 l/m 0,4 km/h (0 Bft) 0 min 0,0 km/h (0 Bft)
08.02.2010 08:20 11,6 C 0,3 C 0,0 UV-I 0,0 C 49 % 93 % 0 % 1011,4 hPa 0,0 l/m 0,4 km/h (0 Bft) 0 min 0,0 km/h (0 Bft)
08.02.2010 08:22 11,6 C 0,3 C 0,0 UV-I 0,0 C 49 % 93 % 0 % 1011,4 hPa 0,0 l/m 0,4 km/h (0 Bft) 0 min 0,0 km/h (0 Bft)
08.02.2010 08:24 11,6 C 0,3 C 0,0 UV-I 0,0 C 49 % 93 % 0 % 1011,4 hPa 0,0 l/m 0,4 km/h (0 Bft) 0 min 0,0 km/h (0 Bft)
08.02.2010 08:26 11,6 C 0,3 C 0,0 UV-I 0,0 C 49 % 93 % 0 % 1011,4 hPa 0,0 l/m 0,0 km/h (0 Bft) 0 min 0,0 km/h (0 Bft)
08.02.2010 08:28 11,6 C 0,3 C 0,0 UV-I 0,0 C 49 % 93 % 0 % 1011,4 hPa 0,0 l/m 0,4 km/h (0 Bft) 0 min 3,4 km/h (1 Bft)
08.02.2010 08:30 11,6 C 0,3 C 0,0 UV-I 0,0 C 49 % 93 % 0 % 1011,4 hPa 0,0 l/m 0,4 km/h (0 Bft) 0 min 3,4 km/h (1 Bft)
08.02.2010 08:32 11,6 C 0,3 C 0,0 UV-I 0,0 C 49 % 93 % 0 % 1011,2 hPa 0,0 l/m 0,8 km/h (0 Bft) 0 min 2,6 km/h (1 Bft)
08.02.2010 08:34 11,6 C 0,3 C 0,0 UV-I 0,0 C 49 % 93 % 0 % 1011,2 hPa 0,0 l/m 0,8 km/h (0 Bft) 0 min 0,0 km/h (0 Bft)
08.02.2010 08:36 11,6 C 0,2 C 0,0 UV-I 0,0 C 49 % 93 % 0 % 1011,2 hPa 0,0 l/m 0,8 km/h (0 Bft) 0 min 0,0 km/h (0 Bft)
08.02.2010 08:38 11,6 C 0,3 C 0,0 UV-I 0,0 C 49 % 93 % 0 % 1011,2 hPa 0,0 l/m 1,2 km/h (1 Bft) 0 min 3,6 km/h (1 Bft)
08.02.2010 08:40 11,6 C 0,3 C 0,0 UV-I 0,0 C 49 % 93 % 0 % 1011,2 hPa 0,0 l/m 0,8 km/h (0 Bft) 0 min 3,6 km/h (1 Bft)
08.02.2010 08:42 11,6 C 0,3 C 0,0 UV-I 0,0 C 49 % 93 % 0 % 1011,2 hPa 0,0 l/m 0,8 km/h (0 Bft) 0 min 0,0 km/h (0 Bft)
08.02.2010 08:44 11,6 C 0,3 C 0,0 UV-I 0,0 C 49 % 93 % 0 % 1011,2 hPa 0,0 l/m 0,8 km/h (0 Bft) 0 min 0,0 km/h (0 Bft)
08.02.2010 08:46 11,6 C 0,3 C 0,0 UV-I 0,0 C 49 % 93 % 0 % 1011,2 hPa 0,0 l/m 0,8 km/h (0 Bft) 0 min 0,0 km/h (0 Bft)
08.02.2010 08:48 11,6 C 0,3 C 0,0 UV-I 0,0 C 49 % 93 % 0 % 1011,2 hPa 0,0 l/m 0,4 km/h (0 Bft) 0 min 0,0 km/h (0 Bft)
08.02.2010 08:50 11,6 C 0,3 C 0,0 UV-I 0,0 C 49 % 93 % 0 % 1011,2 hPa 0,0 l/m 0,0 km/h (0 Bft) 0 min 0,0 km/h (0 Bft)
08.02.2010 08:52 11,6 C 0,3 C 0,0 UV-I 0,0 C 49 % 93 % 0 % 1011,2 hPa 0,0 l/m 0,0 km/h (0 Bft) 0 min 0,0 km/h (0 Bft)
08.02.2010 08:54 11,6 C 0,3 C 0,0 UV-I 0,0 C 49 % 93 % 0 % 1011,2 hPa 0,0 l/m 0,4 km/h (0 Bft) 0 min 0,0 km/h (0 Bft)
08.02.2010 08:56 11,6 C 0,3 C 0,0 UV-I 0,0 C 49 % 93 % 0 % 1011,2 hPa 0,0 l/m 0,4 km/h (0 Bft) 0 min 0,0 km/h (0 Bft)
08.02.2010 08:58 11,6 C 0,2 C 0,0 UV-I 0,0 C 49 % 93 % 0 % 1011,2 hPa 0,0 l/m 0,4 km/h (0 Bft) 0 min 0,0 km/h (0 Bft)
08.02.2010 09:00 11,6 C 0,3 C 0,0 UV-I 0,0 C 49 % 93 % 0 % 1011,2 hPa 0,0 l/m 0,0 km/h (0 Bft) 0 min 0,0 km/h (0 Bft)
08.02.2010 09:02 11,6 C 0,2 C 0,0 UV-I 0,0 C 48 % 93 % 0 % 1011,2 hPa 0,0 l/m 0,0 km/h (0 Bft) 0 min 0,0 km/h (0 Bft)
08.02.2010 09:04 11,6 C 0,3 C 0,0 UV-I 0,0 C 49 % 93 % 0 % 1011,2 hPa 0,0 l/m 0,0 km/h (0 Bft) 0 min 0,0 km/h (0 Bft)
08.02.2010 09:06 11,6 C 0,3 C 0,0 UV-I 0,0 C 48 % 93 % 0 % 1011,2 hPa 0,0 l/m 0,0 km/h (0 Bft) 0 min 0,0 km/h (0 Bft)
08.02.2010 09:08 11,6 C 0,1 C 0,0 UV-I 0,0 C 48 % 93 % 0 % 1011,2 hPa 0,0 l/m 0,0 km/h (0 Bft) 0 min 0,0 km/h (0 Bft)
08.02.2010 09:10 11,6 C 0,1 C 0,0 UV-I 0,0 C 48 % 93 % 0 % 1011,2 hPa 0,0 l/m 0,0 km/h (0 Bft) 0 min 0,0 km/h (0 Bft)
08.02.2010 09:12 11,6 C 0,1 C 0,0 UV-I 0,0 C 48 % 93 % 0 % 1011,1 hPa 0,0 l/m 0,0 km/h (0 Bft) 0 min 0,0 km/h (0 Bft)
08.02.2010 09:14 11,6 C 0,3 C 0,0 UV-I 0,0 C 48 % 93 % 0 % 1011,1 hPa 0,0 l/m 0,0 km/h (0 Bft) 0 min 0,0 km/h (0 Bft)
08.02.2010 09:16 11,6 C 0,2 C 0,0 UV-I 0,0 C 48 % 93 % 0 % 1011,1 hPa 0,0 l/m 0,4 km/h (0 Bft) 0 min 0,0 km/h (0 Bft)
08.02.2010 09:18 11,6 C 0,1 C 0,0 UV-I 0,0 C 48 % 93 % 0 % 1011,1 hPa 0,0 l/m 0,0 km/h (0 Bft) 0 min 0,0 km/h (0 Bft)
08.02.2010 09:20 11,6 C 0,2 C 0,0 UV-I 0,0 C 48 % 93 % 0 % 1011,1 hPa 0,0 l/m 0,0 km/h (0 Bft) 0 min 0,0 km/h (0 Bft)
08.02.2010 09:22 11,6 C 0,1 C 0,0 UV-I 0,0 C 48 % 93 % 0 % 1011,1 hPa 0,0 l/m 0,0 km/h (0 Bft) 0 min 0,0 km/h (0 Bft)
08.02.2010 09:24 11,6 C 0,3 C 0,0 UV-I 0,0 C 48 % 93 % 0 % 1011,1 hPa 0,0 l/m 0,0 km/h (0 Bft) 0 min 0,0 km/h (0 Bft)
08.02.2010 09:26 11,6 C 0,1 C 0,0 UV-I 0,0 C 48 % 93 % 0 % 1011,1 hPa 0,0 l/m 0,0 km/h (0 Bft) 0 min 0,0 km/h (0 Bft)
08.02.2010 09:28 11,6 C 0,1 C 0,0 UV-I 0,0 C 48 % 93 % 0 % 1011,1 hPa 0,0 l/m 0,0 km/h (0 Bft) 0 min 0,0 km/h (0 Bft)
08.02.2010 09:30 11,6 C 0,1 C 0,0 UV-I 0,0 C 48 % 93 % 0 % 1011,1 hPa 0,0 l/m 0,0 km/h (0 Bft) 0 min 0,0 km/h (0 Bft)
08.02.2010 09:32 11,6 C 0,1 C 0,0 UV-I 0,0 C 48 % 93 % 0 % 1011,0 hPa 0,0 l/m 0,4 km/h (0 Bft) 0 min 2,6 km/h (1 Bft)
08.02.2010 09:34 11,6 C 0,1 C 0,0 UV-I 0,0 C 48 % 93 % 0 % 1011,0 hPa 0,0 l/m 0,4 km/h (0 Bft) 0 min 2,6 km/h (1 Bft)
08.02.2010 09:36 11,6 C 0,1 C 0,0 UV-I 0,0 C 48 % 92 % 0 % 1011,0 hPa 0,0 l/m 0,4 km/h (0 Bft) 0 min 0,0 km/h (0 Bft)
08.02.2010 09:38 11,6 C 0,0 C 0,0 UV-I 0,0 C 48 % 92 % 0 % 1011,0 hPa 0,0 l/m 0,4 km/h (0 Bft) 0 min 0,0 km/h (0 Bft)
08.02.2010 09:40 11,6 C 0,0 C 0,0 UV-I 0,0 C 48 % 92 % 0 % 1011,0 hPa 0,0 l/m 0,4 km/h (0 Bft) 0 min 0,0 km/h (0 Bft)
08.02.2010 09:42 11,6 C 0,0 C 0,0 UV-I 0,0 C 48 % 92 % 0 % 1011,0 hPa 0,0 l/m 0,0 km/h (0 Bft) 0 min 0,0 km/h (0 Bft)
08.02.2010 09:44 11,6 C 0,0 C 0,0 UV-I 0,0 C 48 % 92 % 0 % 1011,0 hPa 0,0 l/m 0,0 km/h (0 Bft) 0 min 0,0 km/h (0 Bft)
08.02.2010 09:46 11,6 C 0,1 C 0,0 UV-I 0,0 C 48 % 92 % 0 % 1011,0 hPa 0,0 l/m 0,0 km/h (0 Bft) 0 min 0,0 km/h (0 Bft)
08.02.2010 09:48 11,6 C 0,0 C 0,0 UV-I 0,0 C 48 % 92 % 0 % 1011,0 hPa 0,0 l/m 0,0 km/h (0 Bft) 0 min 0,0 km/h (0 Bft)
08.02.2010 09:50 11,6 C 0,0 C 0,0 UV-I 0,0 C 48 % 92 % 0 % 1011,0 hPa 0,0 l/m 0,0 km/h (0 Bft) 0 min 3,8 km/h (1 Bft)
08.02.2010 09:52 11,6 C 0,0 C 0,0 UV-I 0,0 C 48 % 92 % 0 % 1011,1 hPa 0,0 l/m 0,4 km/h (0 Bft) 0 min 0,0 km/h (0 Bft)
08.02.2010 09:54 11,6 C 0,0 C 0,0 UV-I 0,0 C 48 % 92 % 0 % 1011,1 hPa 0,0 l/m 0,4 km/h (0 Bft) 0 min 0,0 km/h (0 Bft)
08.02.2010 09:56 11,6 C 0,0 C 0,0 UV-I 0,0 C 48 % 92 % 0 % 1011,1 hPa 0,0 l/m 0,4 km/h (0 Bft) 0 min 0,0 km/h (0 Bft)
08.02.2010 09:58 11,6 C 0,0 C 0,0 UV-I 0,0 C 48 % 92 % 0 % 1011,1 hPa 0,0 l/m 0,4 km/h (0 Bft) 0 min 0,0 km/h (0 Bft)
08.02.2010 10:00 11,6 C 0,0 C 0,0 UV-I 0,0 C 48 % 92 % 0 % 1011,1 hPa 0,0 l/m 0,4 km/h (0 Bft) 0 min 0,0 km/h (0 Bft)
08.02.2010 10:02 11,6 C 0,0 C 0,0 UV-I 0,0 C 48 % 92 % 0 % 1011,1 hPa 0,0 l/m 0,0 km/h (0 Bft) 0 min 0,0 km/h (0 Bft)
08.02.2010 10:04 11,6 C 0,0 C 0,0 UV-I 0,0 C 48 % 92 % 0 % 1011,1 hPa 0,0 l/m 0,0 km/h (0 Bft) 0 min 0,0 km/h (0 Bft)
08.02.2010 10:06 11,6 C 0,0 C 0,0 UV-I 0,0 C 48 % 92 % 0 % 1011,1 hPa 0,0 l/m 0,0 km/h (0 Bft) 0 min 0,0 km/h (0 Bft)
08.02.2010 10:08 11,6 C 0,1 C 0,0 UV-I 0,0 C 48 % 92 % 0 % 1011,1 hPa 0,0 l/m 0,0 km/h (0 Bft) 0 min 0,0 km/h (0 Bft)
08.02.2010 10:10 11,6 C 0,1 C 0,0 UV-I 0,0 C 48 % 92 % 0 % 1011,1 hPa 0,0 l/m 0,0 km/h (0 Bft) 0 min 0,0 km/h (0 Bft)
08.02.2010 10:12 11,6 C 0,1 C 0,0 UV-I 0,0 C 48 % 92 % 0 % 1011,0 hPa 0,0 l/m 0,0 km/h (0 Bft) 0 min 0,0 km/h (0 Bft)
08.02.2010 10:14 11,6 C 0,1 C 0,0 UV-I 0,0 C 48 % 92 % 0 % 1011,0 hPa 0,0 l/m 0,0 km/h (0 Bft) 0 min 0,0 km/h (0 Bft)
08.02.2010 10:16 11,6 C 0,1 C 0,0 UV-I 0,0 C 48 % 92 % 0 % 1011,0 hPa 0,0 l/m 0,0 km/h (0 Bft) 0 min 0,0 km/h (0 Bft)
08.02.2010 10:18 11,6 C 0,1 C 0,1 UV-I 0,0 C 48 % 92 % 0 % 1011,0 hPa 0,0 l/m 0,0 km/h (0 Bft) 0 min 0,0 km/h (0 Bft)
08.02.2010 10:20 11,6 C 0,1 C 0,1 UV-I 0,0 C 48 % 91 % 0 % 1011,0 hPa 0,0 l/m 1,2 km/h (1 Bft) 0 min 5,5 km/h (1 Bft)
08.02.2010 10:22 11,6 C 0,1 C 0,1 UV-I 0,0 C 48 % 91 % 0 % 1011,0 hPa 0,0 l/m 1,6 km/h (1 Bft) 0 min 9,1 km/h (2 Bft)
08.02.2010 10:24 11,6 C 0,1 C 0,1 UV-I 0,0 C 48 % 91 % 0 % 1011,0 hPa 0,0 l/m 2,8 km/h (1 Bft) 0 min 5,1 km/h (1 Bft)
08.02.2010 10:26 11,6 C 0,0 C 0,1 UV-I 0,0 C 48 % 91 % 0 % 1011,0 hPa 0,0 l/m 4,0 km/h (1 Bft) 0 min 5,8 km/h (2 Bft)
08.02.2010 10:28 11,6 C 0,0 C 0,1 UV-I 0,0 C 48 % 91 % 0 % 1011,0 hPa 0,0 l/m 4,4 km/h (1 Bft) 0 min 5,8 km/h (2 Bft)
08.02.2010 10:30 11,6 C 0,1 C 0,1 UV-I 0,0 C 47 % 91 % 0 % 1011,0 hPa 0,0 l/m 4,4 km/h (1 Bft) 0 min 6,3 km/h (2 Bft)
08.02.2010 10:32 11,6 C 0,1 C 0,1 UV-I 0,0 C 47 % 91 % 0 % 1010,8 hPa 0,0 l/m 3,2 km/h (1 Bft) 0 min 13,5 km/h (3 Bft)
08.02.2010 10:34 11,6 C 0,1 C 0,1 UV-I 0,0 C 47 % 90 % 0 % 1010,8 hPa 0,0 l/m 3,2 km/h (1 Bft) 0 min 2,6 km/h (1 Bft)
08.02.2010 10:36 11,6 C 0,1 C 0,1 UV-I 0,0 C 47 % 90 % 0 % 1010,8 hPa 0,0 l/m 2,4 km/h (1 Bft) 0 min 2,6 km/h (1 Bft)
08.02.2010 10:38 11,6 C 0,1 C 0,2 UV-I 0,0 C 47 % 90 % 0 % 1010,8 hPa 0,0 l/m 2,4 km/h (1 Bft) 0 min 2,6 km/h (1 Bft)
08.02.2010 10:40 11,6 C 0,1 C 0,2 UV-I 0,0 C 47 % 90 % 0 % 1010,8 hPa 0,0 l/m 3,2 km/h (1 Bft) 0 min 3,1 km/h (1 Bft)
08.02.2010 10:42 11,6 C 0,1 C 0,2 UV-I 0,0 C 47 % 90 % 0 % 1010,8 hPa 0,0 l/m 2,4 km/h (1 Bft) 0 min 3,1 km/h (1 Bft)
08.02.2010 10:44 11,6 C 0,1 C 0,2 UV-I 0,0 C 47 % 90 % 0 % 1010,8 hPa 0,0 l/m 2,4 km/h (1 Bft) 0 min 0,0 km/h (0 Bft)
08.02.2010 10:46 11,6 C 0,3 C 0,2 UV-I 0,0 C 47 % 90 % 0 % 1010,8 hPa 0,0 l/m 2,0 km/h (1 Bft) 0 min 0,0 km/h (0 Bft)
08.02.2010 10:48 11,6 C 0,1 C 0,2 UV-I 0,0 C 47 % 90 % 0 % 1010,8 hPa 0,0 l/m 1,2 km/h (1 Bft) 0 min 2,6 km/h (1 Bft)
08.02.2010 10:50 11,6 C 0,1 C 0,2 UV-I 0,0 C 47 % 90 % 0 % 1010,8 hPa 0,0 l/m 0,8 km/h (0 Bft) 0 min 2,6 km/h (1 Bft)
08.02.2010 10:52 11,6 C 0,1 C 0,3 UV-I 0,0 C 47 % 90 % 0 % 1010,7 hPa 0,0 l/m 0,8 km/h (0 Bft) 0 min 2,6 km/h (1 Bft)
08.02.2010 10:54 11,6 C 0,2 C 0,3 UV-I 0,0 C 47 % 89 % 0 % 1010,7 hPa 0,0 l/m 0,8 km/h (0 Bft) 0 min 0,0 km/h (0 Bft)
08.02.2010 10:56 11,6 C 0,3 C 0,3 UV-I 0,0 C 47 % 89 % 0 % 1010,7 hPa 0,0 l/m 0,8 km/h (0 Bft) 0 min 0,0 km/h (0 Bft)
08.02.2010 10:58 11,6 C 0,3 C 0,3 UV-I 0,0 C 47 % 89 % 0 % 1010,7 hPa 0,0 l/m 0,8 km/h (0 Bft) 0 min 0,0 km/h (0 Bft)
08.02.2010 11:00 11,6 C 0,3 C 0,3 UV-I 0,0 C 47 % 89 % 0 % 1010,7 hPa 0,0 l/m 0,8 km/h (0 Bft) 0 min 0,0 km/h (0 Bft)
08.02.2010 11:02 11,6 C 0,3 C 0,4 UV-I 0,0 C 47 % 89 % 0 % 1010,7 hPa 0,0 l/m 0,8 km/h (0 Bft) 0 min 4,3 km/h (1 Bft)
08.02.2010 11:04 11,6 C 0,1 C 0,4 UV-I 0,0 C 47 % 89 % 0 % 1010,7 hPa 0,0 l/m 1,2 km/h (1 Bft) 0 min 4,3 km/h (1 Bft)
08.02.2010 11:06 11,6 C 0,1 C 0,4 UV-I 0,0 C 47 % 89 % 0 % 1010,7 hPa 0,0 l/m 0,8 km/h (0 Bft) 0 min 0,0 km/h (0 Bft)
08.02.2010 11:08 11,6 C 0,3 C 0,4 UV-I 0,0 C 47 % 89 % 0 % 1010,7 hPa 0,0 l/m 0,8 km/h (0 Bft) 0 min 0,0 km/h (0 Bft)
08.02.2010 11:10 11,6 C 0,3 C 0,4 UV-I 0,0 C 47 % 88 % 0 % 1010,7 hPa 0,0 l/m 1,2 km/h (1 Bft) 0 min 3,4 km/h (1 Bft)
08.02.2010 11:12 11,6 C 0,3 C 0,4 UV-I 0,0 C 47 % 88 % 0 % 1010,4 hPa 0,0 l/m 0,8 km/h (0 Bft) 0 min 3,4 km/h (1 Bft)
08.02.2010 11:16 11,7 C 0,3 C 0,4 UV-I 0,0 C 46 % 89 % 0 % 1010,4 hPa 0,0 l/m 0,4 km/h (0 Bft) 0 min 0,0 km/h (0 Bft)
08.02.2010 11:18 11,6 C 0,3 C 0,3 UV-I 0,0 C 46 % 89 % 0 % 1010,4 hPa 0,0 l/m 0,4 km/h (0 Bft) 0 min 0,0 km/h (0 Bft)
08.02.2010 11:20 11,6 C 0,3 C 0,3 UV-I 0,0 C 47 % 89 % 0 % 1010,4 hPa 0,0 l/m 0,4 km/h (0 Bft) 0 min 0,0 km/h (0 Bft)
08.02.2010 11:22 11,7 C 0,3 C 0,4 UV-I 0,0 C 46 % 89 % 0 % 1010,4 hPa 0,0 l/m 0,0 km/h (0 Bft) 0 min 2,6 km/h (1 Bft)
08.02.2010 11:24 11,6 C 0,3 C 0,4 UV-I 0,0 C 46 % 88 % 0 % 1010,4 hPa 0,0 l/m 0,4 km/h (0 Bft) 0 min 2,6 km/h (1 Bft)
08.02.2010 11:26 11,6 C 0,3 C 0,4 UV-I 0,0 C 47 % 88 % 0 % 1010,4 hPa 0,0 l/m 0,4 km/h (0 Bft) 0 min 0,0 km/h (0 Bft)
08.02.2010 11:28 11,7 C 0,3 C 0,5 UV-I 0,0 C 47 % 88 % 0 % 1010,4 hPa 0,0 l/m 0,4 km/h (0 Bft) 0 min 0,0 km/h (0 Bft)
08.02.2010 11:30 11,7 C 0,3 C 0,5 UV-I 0,0 C 46 % 88 % 0 % 1010,4 hPa 0,0 l/m 0,4 km/h (0 Bft) 0 min 0,0 km/h (0 Bft)
08.02.2010 11:32 11,7 C 0,3 C 0,5 UV-I 0,0 C 46 % 88 % 0 % 1010,4 hPa 0,0 l/m 0,4 km/h (0 Bft) 0 min 0,0 km/h (0 Bft)
08.02.2010 11:34 11,7 C 0,3 C 0,5 UV-I 0,1 C 46 % 87 % 3 % 1010,4 hPa 0,0 l/m 0,0 km/h (0 Bft) 0 min 0,0 km/h (0 Bft)
08.02.2010 11:36 11,6 C 0,3 C 0,5 UV-I 0,1 C 46 % 87 % 3 % 1010,4 hPa 0,0 l/m 0,4 km/h (0 Bft) 0 min 2,4 km/h (1 Bft)
08.02.2010 11:38 11,6 C 0,4 C 0,6 UV-I 0,0 C 46 % 87 % 0 % 1010,4 hPa 0,0 l/m 0,8 km/h (0 Bft) 0 min 2,4 km/h (1 Bft)
08.02.2010 11:40 11,6 C 0,4 C 0,6 UV-I 0,1 C 46 % 87 % 3 % 1010,4 hPa 0,0 l/m 0,8 km/h (0 Bft) 0 min 0,0 km/h (0 Bft)
08.02.2010 11:42 11,6 C 0,3 C 0,7 UV-I 0,2 C 46 % 87 % 6 % 1010,4 hPa 0,0 l/m 0,8 km/h (0 Bft) 0 min 3,6 km/h (1 Bft)
08.02.2010 11:44 11,6 C 0,4 C 0,7 UV-I 0,1 C 46 % 87 % 3 % 1010,4 hPa 0,0 l/m 1,2 km/h (1 Bft) 0 min 3,6 km/h (1 Bft)
08.02.2010 11:46 11,6 C 0,4 C 0,7 UV-I 0,2 C 46 % 87 % 6 % 1010,4 hPa 0,0 l/m 1,2 km/h (1 Bft) 0 min 0,0 km/h (0 Bft)
08.02.2010 11:48 11,6 C 0,4 C 0,7 UV-I 0,2 C 46 % 87 % 6 % 1010,4 hPa 0,0 l/m 0,8 km/h (0 Bft) 0 min 0,0 km/h (0 Bft)
08.02.2010 11:50 11,6 C 0,4 C 0,7 UV-I 0,2 C 46 % 86 % 6 % 1010,4 hPa 0,0 l/m 0,4 km/h (0 Bft) 0 min 0,0 km/h (0 Bft)
08.02.2010 11:52 11,6 C 0,4 C 0,8 UV-I 0,3 C 46 % 86 % 9 % 1010,2 hPa 0,0 l/m 0,4 km/h (0 Bft) 0 min 0,0 km/h (0 Bft)
08.02.2010 11:54 11,6 C 0,4 C 0,8 UV-I 0,4 C 46 % 86 % 11 % 1010,2 hPa 0,0 l/m 0,4 km/h (0 Bft) 0 min 0,0 km/h (0 Bft)
08.02.2010 11:56 11,8 C 0,4 C 0,8 UV-I 0,4 C 46 % 87 % 11 % 1010,2 hPa 0,0 l/m 0,4 km/h (0 Bft) 0 min 0,0 km/h (0 Bft)
08.02.2010 11:58 11,6 C 0,5 C 0,7 UV-I 0,3 C 46 % 86 % 9 % 1010,2 hPa 0,0 l/m 0,4 km/h (0 Bft) 0 min 0,0 km/h (0 Bft)
08.02.2010 12:00 11,8 C 0,5 C 0,7 UV-I 0,3 C 46 % 86 % 9 % 1010,2 hPa 0,0 l/m 0,4 km/h (0 Bft) 0 min 0,0 km/h (0 Bft)
08.02.2010 12:02 11,6 C 0,5 C 0,7 UV-I 0,3 C 46 % 86 % 9 % 1010,2 hPa 0,0 l/m 0,0 km/h (0 Bft) 0 min 0,0 km/h (0 Bft)
08.02.2010 12:04 11,8 C 0,5 C 0,7 UV-I 0,3 C 46 % 86 % 9 % 1010,2 hPa 0,0 l/m 0,0 km/h (0 Bft) 0 min 0,0 km/h (0 Bft)
08.02.2010 12:06 11,6 C 0,5 C 0,7 UV-I 0,3 C 46 % 86 % 9 % 1010,2 hPa 0,0 l/m 0,4 km/h (0 Bft) 0 min 2,9 km/h (1 Bft)
08.02.2010 12:08 11,6 C 0,5 C 0,6 UV-I 0,3 C 46 % 86 % 9 % 1010,2 hPa 0,0 l/m 0,4 km/h (0 Bft) 0 min 3,4 km/h (1 Bft)
08.02.2010 12:10 11,8 C 0,6 C 0,6 UV-I 0,2 C 46 % 86 % 6 % 1010,2 hPa 0,0 l/m 0,8 km/h (0 Bft) 0 min 3,4 km/h (1 Bft)
08.02.2010 12:12 11,8 C 0,6 C 0,8 UV-I 0,2 C 46 % 86 % 6 % 1010,2 hPa 0,0 l/m 1,2 km/h (1 Bft) 0 min 2,6 km/h (1 Bft)
08.02.2010 12:14 11,8 C 0,7 C 0,8 UV-I 0,1 C 46 % 86 % 3 % 1010,2 hPa 0,0 l/m 1,2 km/h (1 Bft) 0 min 0,0 km/h (0 Bft)
08.02.2010 12:16 11,8 C 0,7 C 0,8 UV-I 0,2 C 46 % 85 % 6 % 1010,2 hPa 0,0 l/m 1,6 km/h (1 Bft) 0 min 7,0 km/h (2 Bft)
08.02.2010 12:18 11,8 C 0,7 C 0,8 UV-I 0,2 C 46 % 85 % 6 % 1010,2 hPa 0,0 l/m 2,0 km/h (1 Bft) 0 min 7,0 km/h (2 Bft)
08.02.2010 12:20 11,8 C 0,6 C 0,8 UV-I 0,3 C 46 % 85 % 9 % 1010,2 hPa 0,0 l/m 1,6 km/h (1 Bft) 0 min 0,0 km/h (0 Bft)
08.02.2010 12:22 11,8 C 0,7 C 0,8 UV-I 0,3 C 46 % 85 % 9 % 1010,2 hPa 0,0 l/m 1,2 km/h (1 Bft) 0 min 2,4 km/h (1 Bft)
08.02.2010 12:24 11,8 C 0,7 C 0,8 UV-I 0,3 C 46 % 85 % 9 % 1010,2 hPa 0,0 l/m 1,2 km/h (1 Bft) 0 min 2,6 km/h (1 Bft)
08.02.2010 12:26 11,8 C 0,6 C 0,8 UV-I 0,4 C 45 % 85 % 11 % 1010,2 hPa 0,0 l/m 1,2 km/h (1 Bft) 0 min 2,6 km/h (1 Bft)
08.02.2010 12:28 11,8 C 0,6 C 0,5 UV-I 0,3 C 45 % 85 % 9 % 1010,2 hPa 0,0 l/m 0,4 km/h (0 Bft) 0 min 0,0 km/h (0 Bft)
08.02.2010 12:30 11,8 C 0,7 C 0,5 UV-I 0,2 C 45 % 85 % 6 % 1010,2 hPa 0,0 l/m 0,4 km/h (0 Bft) 0 min 0,0 km/h (0 Bft)
08.02.2010 12:32 11,8 C 0,7 C 0,5 UV-I 0,2 C 45 % 85 % 6 % 1009,8 hPa 0,0 l/m 0,4 km/h (0 Bft) 0 min 0,0 km/h (0 Bft)
08.02.2010 12:34 11,8 C 0,6 C 0,5 UV-I 0,2 C 45 % 86 % 6 % 1009,8 hPa 0,0 l/m 0,4 km/h (0 Bft) 0 min 0,0 km/h (0 Bft)
08.02.2010 12:36 11,8 C 0,7 C 0,5 UV-I 0,1 C 45 % 86 % 3 % 1009,8 hPa 0,0 l/m 0,8 km/h (0 Bft) 0 min 0,0 km/h (0 Bft)
08.02.2010 12:38 11,8 C 0,7 C 0,7 UV-I 0,1 C 45 % 86 % 3 % 1009,8 hPa 0,0 l/m 0,8 km/h (0 Bft) 0 min 0,0 km/h (0 Bft)
08.02.2010 12:40 11,8 C 0,7 C 0,7 UV-I 0,1 C 46 % 86 % 3 % 1009,8 hPa 0,0 l/m 0,8 km/h (0 Bft) 0 min 0,0 km/h (0 Bft)
08.02.2010 12:42 11,8 C 0,7 C 0,8 UV-I 0,1 C 45 % 86 % 3 % 1009,8 hPa 0,0 l/m 0,8 km/h (0 Bft) 0 min 0,0 km/h (0 Bft)
08.02.2010 12:44 11,8 C 0,7 C 0,8 UV-I 0,2 C 45 % 86 % 6 % 1009,8 hPa 0,0 l/m 0,8 km/h (0 Bft) 0 min 3,6 km/h (1 Bft)
08.02.2010 12:46 11,8 C 0,7 C 0,8 UV-I 0,2 C 46 % 86 % 6 % 1009,8 hPa 0,0 l/m 0,8 km/h (0 Bft) 0 min 3,6 km/h (1 Bft)
08.02.2010 12:48 11,8 C 0,7 C 0,8 UV-I 0,2 C 45 % 86 % 6 % 1009,8 hPa 0,0 l/m 0,4 km/h (0 Bft) 0 min 3,4 km/h (1 Bft)
08.02.2010 12:50 11,8 C 0,7 C 0,8 UV-I 0,2 C 45 % 86 % 6 % 1009,8 hPa 0,0 l/m 0,4 km/h (0 Bft) 0 min 0,0 km/h (0 Bft)
08.02.2010 12:52 11,8 C 0,7 C 0,5 UV-I 0,2 C 45 % 86 % 6 % 1009,7 hPa 0,0 l/m 0,4 km/h (0 Bft) 0 min 0,0 km/h (0 Bft)
08.02.2010 12:54 11,8 C 0,7 C 0,5 UV-I 0,2 C 45 % 86 % 6 % 1009,7 hPa 0,0 l/m 0,4 km/h (0 Bft) 0 min 0,0 km/h (0 Bft)
08.02.2010 12:56 11,8 C 0,7 C 0,5 UV-I 0,1 C 45 % 86 % 3 % 1009,7 hPa 0,0 l/m 0,4 km/h (0 Bft) 0 min 0,0 km/h (0 Bft)
08.02.2010 12:58 11,8 C 0,7 C 0,6 UV-I 0,1 C 46 % 86 % 3 % 1009,7 hPa 0,0 l/m 0,4 km/h (0 Bft) 0 min 2,6 km/h (1 Bft)
08.02.2010 13:00 11,8 C 0,8 C 0,6 UV-I 0,0 C 45 % 86 % 0 % 1009,7 hPa 0,0 l/m 0,4 km/h (0 Bft) 0 min 2,6 km/h (1 Bft)
08.02.2010 13:02 11,8 C 0,8 C 0,5 UV-I 0,0 C 45 % 86 % 0 % 1009,7 hPa 0,0 l/m 0,4 km/h (0 Bft) 0 min 0,0 km/h (0 Bft)
08.02.2010 13:04 11,8 C 0,7 C 0,5 UV-I 0,0 C 45 % 86 % 0 % 1009,7 hPa 0,0 l/m 0,0 km/h (0 Bft) 0 min 0,0 km/h (0 Bft)
08.02.2010 13:09 11,8 C 0,8 C 0,1 UV-I 0,0 C 45 % 86 % 0 % 1009,7 hPa 0,0 l/m 0,0 km/h (0 Bft) 0 min 0,0 km/h (0 Bft)
08.02.2010 13:13 11,8 C 0,9 C 0,3 UV-I 0,0 C 45 % 86 % 0 % 1009,3 hPa 0,0 l/m 0,0 km/h (0 Bft) 0 min 0,0 km/h (0 Bft)
08.02.2010 13:16 11,8 C 0,8 C 0,3 UV-I 0,0 C 45 % 86 % 0 % 1009,3 hPa 0,0 l/m 0,0 km/h (0 Bft) 0 min 0,0 km/h (0 Bft)
08.02.2010 13:18 11,8 C 0,8 C 0,2 UV-I 0,0 C 45 % 86 % 0 % 1009,3 hPa 0,0 l/m 0,0 km/h (0 Bft) 0 min 0,0 km/h (0 Bft)
08.02.2010 13:20 11,8 C 0,8 C 0,2 UV-I 0,0 C 45 % 86 % 0 % 1009,3 hPa 0,0 l/m 0,0 km/h (0 Bft) 0 min 0,0 km/h (0 Bft)
08.02.2010 13:22 11,8 C 0,9 C 0,2 UV-I 0,0 C 45 % 86 % 0 % 1009,3 hPa 0,0 l/m 0,0 km/h (0 Bft) 0 min 0,0 km/h (0 Bft)
08.02.2010 13:24 11,8 C 0,8 C 0,2 UV-I 0,0 C 45 % 86 % 0 % 1009,3 hPa 0,0 l/m 0,0 km/h (0 Bft) 0 min 2,4 km/h (1 Bft)
08.02.2010 13:26 11,8 C 0,7 C 0,2 UV-I 0,0 C 45 % 86 % 0 % 1009,3 hPa 0,0 l/m 0,4 km/h (0 Bft) 0 min 2,4 km/h (1 Bft)
08.02.2010 13:28 11,8 C 0,7 C 0,3 UV-I 0,0 C 45 % 85 % 0 % 1009,3 hPa 0,0 l/m 0,4 km/h (0 Bft) 0 min 0,0 km/h (0 Bft)
08.02.2010 13:30 11,8 C 0,7 C 0,3 UV-I 0,0 C 45 % 85 % 0 % 1009,3 hPa 0,0 l/m 1,2 km/h (1 Bft) 0 min 3,4 km/h (1 Bft)
08.02.2010 13:32 11,8 C 0,7 C 0,2 UV-I 0,0 C 45 % 85 % 0 % 1009,2 hPa 0,0 l/m 2,0 km/h (1 Bft) 0 min 4,1 km/h (1 Bft)
08.02.2010 13:34 11,8 C 0,7 C 0,2 UV-I 0,0 C 45 % 85 % 0 % 1009,2 hPa 0,0 l/m 2,0 km/h (1 Bft) 0 min 4,1 km/h (1 Bft)
08.02.2010 13:36 11,8 C 0,6 C 0,2 UV-I 0,0 C 45 % 85 % 0 % 1009,2 hPa 0,0 l/m 1,6 km/h (1 Bft) 0 min 0,0 km/h (0 Bft)
08.02.2010 13:38 11,8 C 0,6 C 0,2 UV-I 0,0 C 45 % 85 % 0 % 1009,2 hPa 0,0 l/m 1,6 km/h (1 Bft) 0 min 0,0 km/h (0 Bft)
08.02.2010 13:40 11,8 C 0,7 C 0,2 UV-I 0,0 C 45 % 85 % 0 % 1009,2 hPa 0,0 l/m 1,2 km/h (1 Bft) 0 min 0,0 km/h (0 Bft)
08.02.2010 13:42 11,8 C 0,7 C 0,2 UV-I 0,0 C 45 % 85 % 0 % 1009,2 hPa 0,0 l/m 0,8 km/h (0 Bft) 0 min 0,0 km/h (0 Bft)
08.02.2010 13:44 11,8 C 0,6 C 0,2 UV-I 0,0 C 45 % 85 % 0 % 1009,2 hPa 0,0 l/m 0,4 km/h (0 Bft) 0 min 0,0 km/h (0 Bft)
08.02.2010 13:46 11,8 C 0,6 C 0,2 UV-I 0,0 C 45 % 85 % 0 % 1009,2 hPa 0,0 l/m 0,0 km/h (0 Bft) 0 min 0,0 km/h (0 Bft)
08.02.2010 13:48 11,8 C 0,7 C 0,3 UV-I 0,0 C 45 % 85 % 0 % 1009,2 hPa 0,0 l/m 0,0 km/h (0 Bft) 0 min 0,0 km/h (0 Bft)
08.02.2010 13:50 11,8 C 0,7 C 0,3 UV-I 0,0 C 45 % 85 % 0 % 1009,2 hPa 0,0 l/m 0,0 km/h (0 Bft) 0 min 0,0 km/h (0 Bft)
08.02.2010 13:52 11,8 C 0,7 C 0,4 UV-I 0,0 C 45 % 85 % 0 % 1009,1 hPa 0,0 l/m 0,0 km/h (0 Bft) 0 min 0,0 km/h (0 Bft)
08.02.2010 13:54 11,8 C 0,7 C 0,4 UV-I 0,0 C 45 % 85 % 0 % 1009,1 hPa 0,0 l/m 0,0 km/h (0 Bft) 0 min 0,0 km/h (0 Bft)
08.02.2010 13:56 11,8 C 0,7 C 0,4 UV-I 0,0 C 45 % 84 % 0 % 1009,1 hPa 0,0 l/m 0,0 km/h (0 Bft) 0 min 0,0 km/h (0 Bft)
08.02.2010 13:58 11,8 C 0,7 C 0,4 UV-I 0,0 C 45 % 84 % 0 % 1009,1 hPa 0,0 l/m 0,0 km/h (0 Bft) 0 min 0,0 km/h (0 Bft)
08.02.2010 14:00 11,8 C 0,7 C 0,4 UV-I 0,0 C 45 % 84 % 0 % 1009,1 hPa 0,0 l/m 0,0 km/h (0 Bft) 0 min 0,0 km/h (0 Bft)
08.02.2010 14:02 11,8 C 0,7 C 0,3 UV-I 0,0 C 45 % 84 % 0 % 1009,1 hPa 0,0 l/m 0,0 km/h (0 Bft) 0 min 0,0 km/h (0 Bft)
08.02.2010 14:04 11,8 C 0,6 C 0,3 UV-I 0,0 C 45 % 84 % 0 % 1009,1 hPa 0,0 l/m 0,0 km/h (0 Bft) 0 min 0,0 km/h (0 Bft)
08.02.2010 14:06 11,8 C 0,7 C 0,3 UV-I 0,0 C 45 % 84 % 0 % 1009,1 hPa 0,0 l/m 0,0 km/h (0 Bft) 0 min 0,0 km/h (0 Bft)
08.02.2010 14:08 11,6 C 0,7 C 0,4 UV-I 0,0 C 45 % 85 % 0 % 1009,1 hPa 0,0 l/m 0,0 km/h (0 Bft) 0 min 0,0 km/h (0 Bft)
08.02.2010 14:10 11,8 C 0,6 C 0,4 UV-I 0,0 C 45 % 85 % 0 % 1009,1 hPa 0,0 l/m 0,0 km/h (0 Bft) 0 min 0,0 km/h (0 Bft)
08.02.2010 14:12 11,8 C 0,6 C 0,3 UV-I 0,0 C 45 % 85 % 0 % 1008,7 hPa 0,0 l/m 0,0 km/h (0 Bft) 0 min 0,0 km/h (0 Bft)
08.02.2010 14:14 11,6 C 0,7 C 0,3 UV-I 0,0 C 45 % 85 % 0 % 1008,7 hPa 0,0 l/m 0,0 km/h (0 Bft) 0 min 0,0 km/h (0 Bft)
08.02.2010 14:16 11,8 C 0,7 C 0,3 UV-I 0,0 C 45 % 85 % 0 % 1008,7 hPa 0,0 l/m 0,0 km/h (0 Bft) 0 min 0,0 km/h (0 Bft)
08.02.2010 14:18 11,6 C 0,7 C 0,3 UV-I 0,0 C 45 % 85 % 0 % 1008,7 hPa 0,0 l/m 0,4 km/h (0 Bft) 0 min 4,3 km/h (1 Bft)
08.02.2010 14:20 11,8 C 0,7 C 0,3 UV-I 0,0 C 45 % 84 % 0 % 1008,7 hPa 0,0 l/m 0,4 km/h (0 Bft) 0 min 4,3 km/h (1 Bft)
08.02.2010 14:22 11,8 C 0,7 C 0,4 UV-I 0,0 C 45 % 84 % 0 % 1008,7 hPa 0,0 l/m 0,4 km/h (0 Bft) 0 min 2,6 km/h (1 Bft)
08.02.2010 14:24 11,8 C 0,7 C 0,4 UV-I 0,0 C 45 % 84 % 0 % 1008,7 hPa 0,0 l/m 0,8 km/h (0 Bft) 0 min 2,6 km/h (1 Bft)
08.02.2010 14:26 11,6 C 0,7 C 0,4 UV-I 0,0 C 45 % 84 % 0 % 1008,7 hPa 0,0 l/m 0,8 km/h (0 Bft) 0 min 2,4 km/h (1 Bft)
08.02.2010 14:28 11,6 C 0,6 C 0,3 UV-I 0,0 C 45 % 84 % 0 % 1008,7 hPa 0,0 l/m 1,2 km/h (1 Bft) 0 min 2,4 km/h (1 Bft)
08.02.2010 14:30 11,6 C 0,7 C 0,3 UV-I 0,0 C 45 % 84 % 0 % 1008,7 hPa 0,0 l/m 0,8 km/h (0 Bft) 0 min 0,0 km/h (0 Bft)
08.02.2010 14:32 11,6 C 0,7 C 0,3 UV-I 0,0 C 45 % 84 % 0 % 1008,6 hPa 0,0 l/m 0,8 km/h (0 Bft) 0 min 0,0 km/h (0 Bft)
08.02.2010 14:34 11,6 C 0,7 C 0,3 UV-I 0,0 C 45 % 84 % 0 % 1008,6 hPa 0,0 l/m 1,2 km/h (1 Bft) 0 min 0,0 km/h (0 Bft)
08.02.2010 14:36 11,6 C 0,6 C 0,3 UV-I 0,0 C 45 % 84 % 0 % 1008,6 hPa 0,0 l/m 1,2 km/h (1 Bft) 0 min 0,0 km/h (0 Bft)
08.02.2010 14:38 11,6 C 0,7 C 0,3 UV-I 0,0 C 45 % 84 % 0 % 1008,6 hPa 0,0 l/m 0,8 km/h (0 Bft) 0 min 2,4 km/h (1 Bft)
08.02.2010 14:40 11,6 C 0,7 C 0,3 UV-I 0,0 C 45 % 84 % 0 % 1008,6 hPa 0,0 l/m 0,8 km/h (0 Bft) 0 min 2,4 km/h (1 Bft)
08.02.2010 14:42 11,6 C 0,7 C 0,2 UV-I 0,0 C 45 % 84 % 0 % 1008,6 hPa 0,0 l/m 0,8 km/h (0 Bft) 0 min 0,0 km/h (0 Bft)
08.02.2010 14:44 11,6 C 0,6 C 0,2 UV-I 0,0 C 45 % 84 % 0 % 1008,6 hPa 0,0 l/m 0,4 km/h (0 Bft) 0 min 0,0 km/h (0 Bft)
08.02.2010 14:46 11,6 C 0,7 C 0,2 UV-I 0,0 C 45 % 84 % 0 % 1008,6 hPa 0,0 l/m 0,4 km/h (0 Bft) 0 min 0,0 km/h (0 Bft)
08.02.2010 14:48 11,6 C 0,7 C 0,2 UV-I 0,0 C 45 % 85 % 0 % 1008,6 hPa 0,0 l/m 0,4 km/h (0 Bft) 0 min 0,0 km/h (0 Bft)
08.02.2010 14:50 11,6 C 0,7 C 0,2 UV-I 0,0 C 45 % 85 % 0 % 1008,6 hPa 0,0 l/m 0,0 km/h (0 Bft) 0 min 2,9 km/h (1 Bft)
08.02.2010 14:52 11,6 C 0,7 C 0,2 UV-I 0,0 C 45 % 85 % 0 % 1008,2 hPa 0,0 l/m 0,4 km/h (0 Bft) 0 min 2,9 km/h (1 Bft)
08.02.2010 14:54 11,8 C 0,7 C 0,2 UV-I 0,0 C 45 % 85 % 0 % 1008,2 hPa 0,0 l/m 0,4 km/h (0 Bft) 0 min 0,0 km/h (0 Bft)
08.02.2010 14:56 11,6 C 0,7 C 0,2 UV-I 0,0 C 45 % 85 % 0 % 1008,2 hPa 0,0 l/m 0,4 km/h (0 Bft) 0 min 0,0 km/h (0 Bft)
08.02.2010 14:58 11,6 C 0,7 C 0,1 UV-I 0,0 C 45 % 85 % 0 % 1008,2 hPa 0,0 l/m 0,4 km/h (0 Bft) 0 min 0,0 km/h (0 Bft)
08.02.2010 15:00 11,6 C 0,7 C 0,1 UV-I 0,0 C 45 % 85 % 0 % 1008,2 hPa 0,0 l/m 0,4 km/h (0 Bft) 0 min 0,0 km/h (0 Bft)
08.02.2010 15:02 11,6 C 0,7 C 0,2 UV-I 0,0 C 45 % 85 % 0 % 1008,2 hPa 0,0 l/m 0,0 km/h (0 Bft) 0 min 0,0 km/h (0 Bft)
08.02.2010 15:04 11,6 C 0,7 C 0,2 UV-I 0,0 C 45 % 85 % 0 % 1008,2 hPa 0,0 l/m 0,4 km/h (0 Bft) 0 min 3,1 km/h (1 Bft)
08.02.2010 15:06 11,6 C 0,7 C 0,2 UV-I 0,0 C 45 % 85 % 0 % 1008,2 hPa 0,0 l/m 0,4 km/h (0 Bft) 0 min 3,1 km/h (1 Bft)
08.02.2010 15:08 11,6 C 0,7 C 0,1 UV-I 0,0 C 45 % 85 % 0 % 1008,2 hPa 0,0 l/m 0,4 km/h (0 Bft) 0 min 0,0 km/h (0 Bft)
08.02.2010 15:10 11,6 C 0,7 C 0,1 UV-I 0,0 C 45 % 85 % 0 % 1008,2 hPa 0,0 l/m 0,4 km/h (0 Bft) 0 min 0,0 km/h (0 Bft)
08.02.2010 15:12 11,6 C 0,7 C 0,2 UV-I 0,0 C 45 % 85 % 0 % 1008,1 hPa 0,0 l/m 0,4 km/h (0 Bft) 0 min 2,9 km/h (1 Bft)
08.02.2010 15:14 11,6 C 0,7 C 0,2 UV-I 0,0 C 45 % 85 % 0 % 1008,1 hPa 0,0 l/m 0,8 km/h (0 Bft) 0 min 2,9 km/h (1 Bft)
08.02.2010 15:16 11,6 C 0,6 C 0,2 UV-I 0,0 C 45 % 85 % 0 % 1008,1 hPa 0,0 l/m 0,4 km/h (0 Bft) 0 min 2,4 km/h (1 Bft)
08.02.2010 15:18 11,6 C 0,7 C 0,3 UV-I 0,0 C 45 % 85 % 0 % 1008,1 hPa 0,0 l/m 0,4 km/h (0 Bft) 0 min 2,4 km/h (1 Bft)
08.02.2010 15:22 11,6 C 0,5 C 0,3 UV-I 0,0 C 45 % 85 % 0 % 1008,1 hPa 0,0 l/m 0,4 km/h (0 Bft) 0 min 0,0 km/h (0 Bft)
08.02.2010 15:26 11,6 C 0,5 C 0,3 UV-I 0,0 C 45 % 85 % 0 % 1008,1 hPa 0,0 l/m 0,0 km/h (0 Bft) 0 min 0,0 km/h (0 Bft)
08.02.2010 15:28 11,6 C 0,5 C 0,3 UV-I 0,0 C 45 % 85 % 0 % 1008,1 hPa 0,0 l/m 0,0 km/h (0 Bft) 0 min 0,0 km/h (0 Bft)
08.02.2010 15:30 11,6 C 0,5 C 0,3 UV-I 0,0 C 45 % 85 % 0 % 1008,1 hPa 0,0 l/m 0,0 km/h (0 Bft) 0 min 0,0 km/h (0 Bft)
08.02.2010 15:32 11,6 C 0,5 C 0,2 UV-I 0,0 C 45 % 85 % 0 % 1007,8 hPa 0,0 l/m 0,0 km/h (0 Bft) 0 min 0,0 km/h (0 Bft)
08.02.2010 15:34 11,6 C 0,6 C 0,2 UV-I 0,0 C 45 % 85 % 0 % 1007,8 hPa 0,0 l/m 0,0 km/h (0 Bft) 0 min 0,0 km/h (0 Bft)
08.02.2010 15:36 11,6 C 0,5 C 0,2 UV-I 0,0 C 45 % 85 % 0 % 1007,8 hPa 0,0 l/m 0,0 km/h (0 Bft) 0 min 0,0 km/h (0 Bft)
08.02.2010 15:40 11,6 C 0,5 C 0,3 UV-I 0,0 C 45 % 85 % 0 % 1007,8 hPa 0,0 l/m 0,4 km/h (0 Bft) 0 min 3,1 km/h (1 Bft)
08.02.2010 15:42 11,6 C 0,5 C 0,3 UV-I 0,0 C 45 % 85 % 0 % 1007,8 hPa 0,0 l/m 0,8 km/h (0 Bft) 0 min 2,6 km/h (1 Bft)
08.02.2010 15:44 11,6 C 0,6 C 0,3 UV-I 0,0 C 45 % 85 % 0 % 1007,8 hPa 0,0 l/m 1,2 km/h (1 Bft) 0 min 3,1 km/h (1 Bft)
08.02.2010 15:46 11,6 C 0,5 C 0,3 UV-I 0,0 C 45 % 84 % 0 % 1007,8 hPa 0,0 l/m 1,2 km/h (1 Bft) 0 min 3,1 km/h (1 Bft)
08.02.2010 15:48 11,6 C 0,4 C 0,3 UV-I 0,0 C 45 % 84 % 0 % 1007,8 hPa 0,0 l/m 1,6 km/h (1 Bft) 0 min 0,0 km/h (0 Bft)
08.02.2010 15:50 11,6 C 0,5 C 0,3 UV-I 0,0 C 45 % 84 % 0 % 1007,8 hPa 0,0 l/m 1,2 km/h (1 Bft) 0 min 0,0 km/h (0 Bft)
08.02.2010 15:52 11,6 C 0,5 C 0,2 UV-I 0,0 C 45 % 84 % 0 % 1007,7 hPa 0,0 l/m 0,8 km/h (0 Bft) 0 min 0,0 km/h (0 Bft)
08.02.2010 15:56 11,6 C 0,5 C 0,2 UV-I 0,0 C 44 % 84 % 0 % 1007,7 hPa 0,0 l/m 0,8 km/h (0 Bft) 0 min 0,0 km/h (0 Bft)
08.02.2010 15:58 11,8 C 0,4 C 0,2 UV-I 0,0 C 44 % 84 % 0 % 1007,7 hPa 0,0 l/m 0,8 km/h (0 Bft) 0 min 0,0 km/h (0 Bft)
08.02.2010 16:00 11,6 C 0,4 C 0,2 UV-I 0,0 C 44 % 84 % 0 % 1007,7 hPa 0,0 l/m 0,8 km/h (0 Bft) 0 min 0,0 km/h (0 Bft)
08.02.2010 16:02 11,6 C 0,4 C 0,2 UV-I 0,0 C 44 % 84 % 0 % 1007,7 hPa 0,0 l/m 0,8 km/h (0 Bft) 0 min 0,0 km/h (0 Bft)
08.02.2010 16:04 11,6 C 0,4 C 0,2 UV-I 0,0 C 45 % 84 % 0 % 1007,7 hPa 0,0 l/m 0,8 km/h (0 Bft) 0 min 0,0 km/h (0 Bft)
08.02.2010 16:06 11,6 C 0,4 C 0,2 UV-I 0,0 C 44 % 84 % 0 % 1007,7 hPa 0,0 l/m 0,8 km/h (0 Bft) 0 min 0,0 km/h (0 Bft)
08.02.2010 16:08 11,6 C 0,4 C 0,1 UV-I 0,0 C 44 % 84 % 0 % 1007,7 hPa 0,0 l/m 0,4 km/h (0 Bft) 0 min 2,4 km/h (1 Bft)
08.02.2010 16:10 11,6 C 0,4 C 0,1 UV-I 0,0 C 44 % 84 % 0 % 1007,7 hPa 0,0 l/m 0,4 km/h (0 Bft) 0 min 2,4 km/h (1 Bft)
08.02.2010 16:12 11,6 C 0,4 C 0,1 UV-I 0,0 C 44 % 84 % 0 % 1007,8 hPa 0,0 l/m 0,4 km/h (0 Bft) 0 min 0,0 km/h (0 Bft)
08.02.2010 16:14 11,6 C 0,4 C 0,1 UV-I 0,0 C 44 % 84 % 0 % 1007,8 hPa 0,0 l/m 0,4 km/h (0 Bft) 0 min 0,0 km/h (0 Bft)
08.02.2010 16:16 11,6 C 0,4 C 0,1 UV-I 0,0 C 44 % 84 % 0 % 1007,8 hPa 0,0 l/m 0,4 km/h (0 Bft) 0 min 4,8 km/h (1 Bft)
08.02.2010 16:18 11,6 C 0,4 C 0,1 UV-I 0,0 C 44 % 84 % 0 % 1007,8 hPa 0,0 l/m 0,4 km/h (0 Bft) 0 min 4,8 km/h (1 Bft)
08.02.2010 16:20 11,6 C 0,4 C 0,1 UV-I 0,0 C 44 % 84 % 0 % 1007,8 hPa 0,0 l/m 0,4 km/h (0 Bft) 0 min 0,0 km/h (0 Bft)
08.02.2010 16:22 11,6 C 0,4 C 0,0 UV-I 0,0 C 44 % 84 % 0 % 1007,8 hPa 0,0 l/m 0,4 km/h (0 Bft) 0 min 0,0 km/h (0 Bft)
08.02.2010 16:24 11,6 C 0,5 C 0,0 UV-I 0,0 C 44 % 84 % 0 % 1007,8 hPa 0,0 l/m 0,4 km/h (0 Bft) 0 min 0,0 km/h (0 Bft)
08.02.2010 16:26 11,6 C 0,4 C 0,0 UV-I 0,0 C 44 % 84 % 0 % 1007,8 hPa 0,0 l/m 0,4 km/h (0 Bft) 0 min 0,0 km/h (0 Bft)
08.02.2010 16:28 11,6 C 0,4 C 0,0 UV-I 0,0 C 44 % 84 % 0 % 1007,8 hPa 0,0 l/m 0,0 km/h (0 Bft) 0 min 2,6 km/h (1 Bft)
08.02.2010 16:30 11,6 C 0,4 C 0,0 UV-I 0,0 C 44 % 84 % 0 % 1007,8 hPa 0,0 l/m 0,4 km/h (0 Bft) 0 min 2,6 km/h (1 Bft)
08.02.2010 16:32 11,6 C 0,4 C 0,0 UV-I 0,0 C 44 % 84 % 0 % 1007,4 hPa 0,0 l/m 0,4 km/h (0 Bft) 0 min 0,0 km/h (0 Bft)
08.02.2010 16:34 11,6 C 0,4 C 0,0 UV-I 0,0 C 44 % 84 % 0 % 1007,4 hPa 0,0 l/m 0,4 km/h (0 Bft) 0 min 0,0 km/h (0 Bft)
08.02.2010 16:36 11,7 C 0,4 C 0,0 UV-I 0,0 C 44 % 84 % 0 % 1007,4 hPa 0,0 l/m 0,4 km/h (0 Bft) 0 min 2,4 km/h (1 Bft)
08.02.2010 16:38 11,7 C 0,3 C 0,0 UV-I 0,0 C 44 % 84 % 0 % 1007,4 hPa 0,0 l/m 0,4 km/h (0 Bft) 0 min 2,4 km/h (1 Bft)
08.02.2010 16:40 11,7 C 0,4 C 0,0 UV-I 0,0 C 44 % 84 % 0 % 1007,4 hPa 0,0 l/m 0,0 km/h (0 Bft) 0 min 0,0 km/h (0 Bft)
08.02.2010 16:42 11,7 C 0,3 C 0,0 UV-I 0,0 C 44 % 84 % 0 % 1007,4 hPa 0,0 l/m 0,8 km/h (0 Bft) 0 min 0,0 km/h (0 Bft)
08.02.2010 16:44 11,6 C 0,3 C 0,0 UV-I 0,0 C 44 % 84 % 0 % 1007,4 hPa 0,0 l/m 1,2 km/h (1 Bft) 0 min 3,6 km/h (1 Bft)
08.02.2010 16:46 11,7 C 0,3 C 0,0 UV-I 0,0 C 44 % 84 % 0 % 1007,4 hPa 0,0 l/m 1,2 km/h (1 Bft) 0 min 3,6 km/h (1 Bft)
08.02.2010 16:48 11,7 C 0,2 C 0,0 UV-I 0,0 C 44 % 84 % 0 % 1007,4 hPa 0,0 l/m 1,2 km/h (1 Bft) 0 min 0,0 km/h (0 Bft)
08.02.2010 16:50 11,6 C 0,3 C 0,0 UV-I 0,0 C 44 % 84 % 0 % 1007,4 hPa 0,0 l/m 1,2 km/h (1 Bft) 0 min 0,0 km/h (0 Bft)
08.02.2010 16:52 11,6 C 0,3 C 0,0 UV-I 0,0 C 44 % 84 % 0 % 1007,2 hPa 0,0 l/m 1,2 km/h (1 Bft) 0 min 0,0 km/h (0 Bft)
08.02.2010 16:54 11,6 C 0,1 C 0,0 UV-I 0,0 C 44 % 84 % 0 % 1007,2 hPa 0,0 l/m 1,2 km/h (1 Bft) 0 min 2,6 km/h (1 Bft)
08.02.2010 16:56 11,6 C 0,1 C 0,0 UV-I 0,0 C 44 % 84 % 0 % 1007,2 hPa 0,0 l/m 0,8 km/h (0 Bft) 0 min 2,6 km/h (1 Bft)
08.02.2010 17:00 11,6 C 0,1 C 0,0 UV-I 0,0 C 44 % 84 % 0 % 1007,2 hPa 0,0 l/m 1,2 km/h (1 Bft) 0 min 2,6 km/h (1 Bft)
08.02.2010 17:04 11,6 C 0,1 C 0,0 UV-I 0,0 C 44 % 84 % 0 % 1007,2 hPa 0,0 l/m 0,8 km/h (0 Bft) 0 min 2,4 km/h (1 Bft)
08.02.2010 17:06 11,6 C 0,1 C 0,0 UV-I 0,0 C 44 % 84 % 0 % 1007,2 hPa 0,0 l/m 0,8 km/h (0 Bft) 0 min 0,0 km/h (0 Bft)
08.02.2010 17:08 11,6 C 0,0 C 0,0 UV-I 0,0 C 44 % 84 % 0 % 1007,2 hPa 0,0 l/m 0,8 km/h (0 Bft) 0 min 0,0 km/h (0 Bft)
08.02.2010 17:10 11,6 C 0,0 C 0,0 UV-I 0,0 C 44 % 84 % 0 % 1007,2 hPa 0,0 l/m 0,4 km/h (0 Bft) 0 min 0,0 km/h (0 Bft)
08.02.2010 17:12 11,6 C 0,0 C 0,0 UV-I 0,0 C 44 % 84 % 0 % 1006,9 hPa 0,0 l/m 0,4 km/h (0 Bft) 0 min 0,0 km/h (0 Bft)
08.02.2010 17:14 11,6 C 0,0 C 0,0 UV-I 0,0 C 44 % 84 % 0 % 1006,9 hPa 0,0 l/m 0,4 km/h (0 Bft) 0 min 0,0 km/h (0 Bft)
08.02.2010 17:16 11,6 C -0,1 C 0,0 UV-I 0,0 C 44 % 84 % 0 % 1006,9 hPa 0,0 l/m 0,0 km/h (0 Bft) 0 min 0,0 km/h (0 Bft)
08.02.2010 17:18 11,6 C -0,1 C 0,0 UV-I 0,0 C 44 % 84 % 0 % 1006,9 hPa 0,0 l/m 0,4 km/h (0 Bft) 0 min 0,0 km/h (0 Bft)
08.02.2010 17:20 11,6 C -0,1 C 0,0 UV-I 0,0 C 44 % 84 % 0 % 1006,9 hPa 0,0 l/m 0,4 km/h (0 Bft) 0 min 0,0 km/h (0 Bft)
08.02.2010 17:22 11,6 C -0,1 C 0,0 UV-I 0,0 C 44 % 84 % 0 % 1006,9 hPa 0,0 l/m 0,4 km/h (0 Bft) 0 min 0,0 km/h (0 Bft)
08.02.2010 17:24 11,6 C -0,1 C 0,0 UV-I 0,0 C 44 % 84 % 0 % 1006,9 hPa 0,0 l/m 0,0 km/h (0 Bft) 0 min 0,0 km/h (0 Bft)
08.02.2010 17:26 11,6 C -0,1 C 0,0 UV-I 0,0 C 44 % 84 % 0 % 1006,9 hPa 0,0 l/m 0,4 km/h (0 Bft) 0 min 0,0 km/h (0 Bft)
08.02.2010 17:28 11,6 C -0,1 C 0,0 UV-I 0,0 C 44 % 84 % 0 % 1006,9 hPa 0,0 l/m 0,8 km/h (0 Bft) 0 min 3,4 km/h (1 Bft)
08.02.2010 17:32 11,6 C -0,1 C 0,0 UV-I 0,0 C 44 % 84 % 0 % 1007,2 hPa 0,0 l/m 1,2 km/h (1 Bft) 0 min 3,4 km/h (1 Bft)
08.02.2010 17:34 11,6 C -0,1 C 0,0 UV-I 0,0 C 44 % 84 % 0 % 1007,2 hPa 0,0 l/m 1,2 km/h (1 Bft) 0 min 0,0 km/h (0 Bft)
08.02.2010 17:36 11,6 C -0,3 C 0,0 UV-I 0,0 C 44 % 84 % 0 % 1007,2 hPa 0,0 l/m 1,2 km/h (1 Bft) 0 min 3,4 km/h (1 Bft)
08.02.2010 17:38 11,6 C -0,3 C 0,0 UV-I 0,0 C 44 % 84 % 0 % 1007,2 hPa 0,0 l/m 1,6 km/h (1 Bft) 0 min 3,4 km/h (1 Bft)
08.02.2010 17:40 11,6 C -0,3 C 0,0 UV-I 0,0 C 44 % 84 % 0 % 1007,2 hPa 0,0 l/m 1,2 km/h (1 Bft) 0 min 2,9 km/h (1 Bft)
08.02.2010 17:42 11,6 C -0,3 C 0,0 UV-I 0,0 C 44 % 84 % 0 % 1007,2 hPa 0,0 l/m 0,8 km/h (0 Bft) 0 min 0,0 km/h (0 Bft)
08.02.2010 17:44 11,6 C -0,3 C 0,0 UV-I 0,0 C 44 % 84 % 0 % 1007,2 hPa 0,0 l/m 0,8 km/h (0 Bft) 0 min 2,4 km/h (1 Bft)
08.02.2010 17:46 11,6 C -0,3 C 0,0 UV-I 0,0 C 44 % 84 % 0 % 1007,2 hPa 0,0 l/m 0,8 km/h (0 Bft) 0 min 3,4 km/h (1 Bft)
08.02.2010 17:48 11,6 C -0,3 C 0,0 UV-I 0,0 C 44 % 84 % 0 % 1007,2 hPa 0,0 l/m 1,2 km/h (1 Bft) 0 min 0,0 km/h (0 Bft)
08.02.2010 17:50 11,4 C -0,4 C 0,0 UV-I 0,0 C 44 % 84 % 0 % 1007,2 hPa 0,0 l/m 1,2 km/h (1 Bft) 0 min 3,4 km/h (1 Bft)
08.02.2010 17:52 11,4 C -0,4 C 0,0 UV-I 0,0 C 44 % 84 % 0 % 1006,6 hPa 0,0 l/m 1,2 km/h (1 Bft) 0 min 0,0 km/h (0 Bft)
08.02.2010 17:54 11,4 C -0,4 C 0,0 UV-I 0,0 C 44 % 84 % 0 % 1006,6 hPa 0,0 l/m 1,2 km/h (1 Bft) 0 min 0,0 km/h (0 Bft)
08.02.2010 17:58 11,4 C -0,4 C 0,0 UV-I 0,0 C 44 % 84 % 0 % 1006,6 hPa 0,0 l/m 0,8 km/h (0 Bft) 0 min 0,0 km/h (0 Bft)
08.02.2010 18:00 11,5 C -0,4 C 0,0 UV-I 0,0 C 44 % 84 % 0 % 1006,6 hPa 0,0 l/m 0,8 km/h (0 Bft) 0 min 3,4 km/h (1 Bft)
08.02.2010 18:02 11,4 C -0,4 C 0,0 UV-I 0,0 C 44 % 84 % 0 % 1006,6 hPa 0,0 l/m 0,8 km/h (0 Bft) 0 min 3,4 km/h (1 Bft)
08.02.2010 18:04 11,4 C -0,4 C 0,0 UV-I 0,0 C 44 % 84 % 0 % 1006,6 hPa 0,0 l/m 0,8 km/h (0 Bft) 0 min 2,6 km/h (1 Bft)
08.02.2010 18:08 11,5 C -0,3 C 0,0 UV-I 0,0 C 44 % 84 % 0 % 1006,6 hPa 0,0 l/m 1,2 km/h (1 Bft) 0 min 3,1 km/h (1 Bft)
08.02.2010 18:14 11,5 C -0,5 C 0,0 UV-I 0,0 C 44 % 84 % 0 % 1006,6 hPa 0,0 l/m 2,0 km/h (1 Bft) 0 min 3,1 km/h (1 Bft)
08.02.2010 18:16 11,5 C -0,5 C 0,0 UV-I 0,0 C 44 % 84 % 0 % 1006,6 hPa 0,0 l/m 2,0 km/h (1 Bft) 0 min 0,0 km/h (0 Bft)
08.02.2010 18:18 11,5 C -0,5 C 0,0 UV-I 0,0 C 44 % 84 % 0 % 1006,6 hPa 0,0 l/m 1,6 km/h (1 Bft) 0 min 2,9 km/h (1 Bft)
08.02.2010 18:20 11,3 C -0,5 C 0,0 UV-I 0,0 C 44 % 84 % 0 % 1006,6 hPa 0,0 l/m 1,2 km/h (1 Bft) 0 min 3,6 km/h (1 Bft)
08.02.2010 18:22 11,3 C -0,5 C 0,0 UV-I 0,0 C 44 % 84 % 0 % 1006,6 hPa 0,0 l/m 1,2 km/h (1 Bft) 0 min 3,6 km/h (1 Bft)
08.02.2010 18:26 11,3 C -0,5 C 0,0 UV-I 0,0 C 44 % 84 % 0 % 1006,6 hPa 0,0 l/m 1,2 km/h (1 Bft) 0 min 2,9 km/h (1 Bft)
08.02.2010 18:28 11,4 C -0,5 C 0,0 UV-I 0,0 C 44 % 84 % 0 % 1006,6 hPa 0,0 l/m 1,2 km/h (1 Bft) 0 min 3,1 km/h (1 Bft)
08.02.2010 18:30 11,3 C -0,5 C 0,0 UV-I 0,0 C 44 % 84 % 0 % 1006,6 hPa 0,0 l/m 1,2 km/h (1 Bft) 0 min 3,1 km/h (1 Bft)
08.02.2010 18:32 11,3 C -0,5 C 0,0 UV-I 0,0 C 44 % 84 % 0 % 1006,8 hPa 0,0 l/m 1,2 km/h (1 Bft) 0 min 3,8 km/h (1 Bft)
08.02.2010 18:34 11,4 C -0,5 C 0,0 UV-I 0,0 C 44 % 84 % 0 % 1006,8 hPa 0,0 l/m 1,2 km/h (1 Bft) 0 min 3,8 km/h (1 Bft)
08.02.2010 18:36 11,4 C -0,5 C 0,0 UV-I 0,0 C 44 % 84 % 0 % 1006,8 hPa 0,0 l/m 1,2 km/h (1 Bft) 0 min 2,9 km/h (1 Bft)
08.02.2010 18:38 11,4 C -0,5 C 0,0 UV-I 0,0 C 44 % 84 % 0 % 1006,8 hPa 0,0 l/m 1,6 km/h (1 Bft) 0 min 3,4 km/h (1 Bft)
08.02.2010 18:40 11,4 C -0,6 C 0,0 UV-I 0,0 C 44 % 84 % 0 % 1006,8 hPa 0,0 l/m 1,6 km/h (1 Bft) 0 min 3,4 km/h (1 Bft)
08.02.2010 18:42 11,4 C -0,5 C 0,0 UV-I 0,0 C 44 % 84 % 0 % 1006,8 hPa 0,0 l/m 1,6 km/h (1 Bft) 0 min 0,0 km/h (0 Bft)
08.02.2010 18:44 11,4 C -0,5 C 0,0 UV-I 0,0 C 44 % 84 % 0 % 1006,8 hPa 0,0 l/m 1,6 km/h (1 Bft) 0 min 0,0 km/h (0 Bft)
08.02.2010 18:46 11,4 C -0,5 C 0,0 UV-I 0,0 C 44 % 84 % 0 % 1006,8 hPa 0,0 l/m 1,6 km/h (1 Bft) 0 min 3,1 km/h (1 Bft)
08.02.2010 18:48 11,4 C -0,5 C 0,0 UV-I 0,0 C 44 % 84 % 0 % 1006,8 hPa 0,0 l/m 1,2 km/h (1 Bft) 0 min 3,1 km/h (1 Bft)
08.02.2010 18:52 11,4 C -0,5 C 0,0 UV-I 0,0 C 44 % 84 % 0 % 1006,9 hPa 0,0 l/m 0,8 km/h (0 Bft) 0 min 0,0 km/h (0 Bft)
08.02.2010 18:54 11,4 C -0,5 C 0,0 UV-I 0,0 C 44 % 84 % 0 % 1006,9 hPa 0,0 l/m 1,2 km/h (1 Bft) 0 min 3,1 km/h (1 Bft)
08.02.2010 18:56 11,4 C -0,5 C 0,0 UV-I 0,0 C 44 % 84 % 0 % 1006,9 hPa 0,0 l/m 1,2 km/h (1 Bft) 0 min 3,1 km/h (1 Bft)
08.02.2010 19:02 11,4 C -0,5 C 0,0 UV-I 0,0 C 44 % 84 % 0 % 1006,9 hPa 0,0 l/m 1,6 km/h (1 Bft) 0 min 4,1 km/h (1 Bft)
08.02.2010 19:06 11,4 C -0,5 C 0,0 UV-I 0,0 C 44 % 84 % 0 % 1006,9 hPa 0,0 l/m 1,2 km/h (1 Bft) 0 min 2,4 km/h (1 Bft)
08.02.2010 19:08 11,4 C -0,5 C 0,0 UV-I 0,0 C 44 % 84 % 0 % 1006,9 hPa 0,0 l/m 1,2 km/h (1 Bft) 0 min 0,0 km/h (0 Bft)
08.02.2010 19:10 11,2 C -0,7 C 0,0 UV-I 0,0 C 44 % 84 % 0 % 1006,9 hPa 0,0 l/m 1,2 km/h (1 Bft) 0 min 2,6 km/h (1 Bft)
08.02.2010 19:12 11,2 C -0,7 C 0,0 UV-I 0,0 C 44 % 84 % 0 % 1006,6 hPa 0,0 l/m 1,2 km/h (1 Bft) 0 min 3,6 km/h (1 Bft)
08.02.2010 19:16 11,2 C -0,7 C 0,0 UV-I 0,0 C 44 % 84 % 0 % 1006,6 hPa 0,0 l/m 1,6 km/h (1 Bft) 0 min 2,4 km/h (1 Bft)
08.02.2010 19:18 11,2 C -0,7 C 0,0 UV-I 0,0 C 44 % 84 % 0 % 1006,6 hPa 0,0 l/m 2,0 km/h (1 Bft) 0 min 3,6 km/h (1 Bft)
08.02.2010 19:20 11,2 C -0,7 C 0,0 UV-I 0,0 C 44 % 84 % 0 % 1006,6 hPa 0,0 l/m 2,0 km/h (1 Bft) 0 min 3,6 km/h (1 Bft)
08.02.2010 19:22 11,2 C -0,7 C 0,0 UV-I 0,0 C 44 % 84 % 0 % 1006,6 hPa 0,0 l/m 1,6 km/h (1 Bft) 0 min 0,0 km/h (0 Bft)
08.02.2010 19:24 11,2 C -0,7 C 0,0 UV-I 0,0 C 44 % 84 % 0 % 1006,6 hPa 0,0 l/m 1,2 km/h (1 Bft) 0 min 0,0 km/h (0 Bft)
08.02.2010 19:26 11,2 C -0,7 C 0,0 UV-I 0,0 C 44 % 84 % 0 % 1006,6 hPa 0,0 l/m 1,2 km/h (1 Bft) 0 min 0,0 km/h (0 Bft)
08.02.2010 19:28 11,3 C -0,7 C 0,0 UV-I 0,0 C 44 % 84 % 0 % 1006,6 hPa 0,0 l/m 1,2 km/h (1 Bft) 0 min 0,0 km/h (0 Bft)
08.02.2010 19:30 11,3 C -0,7 C 0,0 UV-I 0,0 C 44 % 84 % 0 % 1006,6 hPa 0,0 l/m 0,8 km/h (0 Bft) 0 min 2,6 km/h (1 Bft)
08.02.2010 19:32 11,3 C -0,7 C 0,0 UV-I 0,0 C 44 % 84 % 0 % 1006,8 hPa 0,0 l/m 1,2 km/h (1 Bft) 0 min 2,9 km/h (1 Bft)
08.02.2010 19:34 11,3 C -0,7 C 0,0 UV-I 0,0 C 44 % 84 % 0 % 1006,8 hPa 0,0 l/m 1,2 km/h (1 Bft) 0 min 2,9 km/h (1 Bft)
08.02.2010 19:36 11,3 C -0,7 C 0,0 UV-I 0,0 C 44 % 84 % 0 % 1006,8 hPa 0,0 l/m 0,8 km/h (0 Bft) 0 min 0,0 km/h (0 Bft)
08.02.2010 19:38 11,3 C -0,7 C 0,0 UV-I 0,0 C 44 % 84 % 0 % 1006,8 hPa 0,0 l/m 0,4 km/h (0 Bft) 0 min 0,0 km/h (0 Bft)
08.02.2010 19:40 11,3 C -0,7 C 0,0 UV-I 0,0 C 44 % 84 % 0 % 1006,8 hPa 0,0 l/m 0,4 km/h (0 Bft) 0 min 0,0 km/h (0 Bft)
08.02.2010 19:42 11,3 C -0,7 C 0,0 UV-I 0,0 C 44 % 84 % 0 % 1006,8 hPa 0,0 l/m 0,8 km/h (0 Bft) 0 min 3,4 km/h (1 Bft)
08.02.2010 19:44 11,1 C -0,7 C 0,0 UV-I 0,0 C 44 % 84 % 0 % 1006,8 hPa 0,0 l/m 0,4 km/h (0 Bft) 0 min 3,4 km/h (1 Bft)
08.02.2010 19:46 11,1 C -0,7 C 0,0 UV-I 0,0 C 44 % 84 % 0 % 1006,8 hPa 0,0 l/m 0,4 km/h (0 Bft) 0 min 2,4 km/h (1 Bft)
08.02.2010 19:48 11,1 C -0,7 C 0,0 UV-I 0,0 C 44 % 84 % 0 % 1006,8 hPa 0,0 l/m 0,4 km/h (0 Bft) 0 min 3,1 km/h (1 Bft)
08.02.2010 19:50 11,1 C -0,7 C 0,0 UV-I 0,0 C 44 % 84 % 0 % 1006,8 hPa 0,0 l/m 0,8 km/h (0 Bft) 0 min 3,1 km/h (1 Bft)
08.02.2010 19:52 11,1 C -0,7 C 0,0 UV-I 0,0 C 44 % 84 % 0 % 1006,6 hPa 0,0 l/m 0,8 km/h (0 Bft) 0 min 0,0 km/h (0 Bft)
08.02.2010 19:54 11,1 C -0,8 C 0,0 UV-I 0,0 C 44 % 84 % 0 % 1006,6 hPa 0,0 l/m 1,2 km/h (1 Bft) 0 min 0,0 km/h (0 Bft)
08.02.2010 19:56 11,1 C -0,8 C 0,0 UV-I 0,0 C 44 % 84 % 0 % 1006,6 hPa 0,0 l/m 1,2 km/h (1 Bft) 0 min 3,6 km/h (1 Bft)
08.02.2010 19:58 11,1 C -0,8 C 0,0 UV-I 0,0 C 44 % 84 % 0 % 1006,6 hPa 0,0 l/m 1,6 km/h (1 Bft) 0 min 3,6 km/h (1 Bft)
08.02.2010 20:00 11,1 C -0,8 C 0,0 UV-I 0,0 C 44 % 84 % 0 % 1006,6 hPa 0,0 l/m 1,2 km/h (1 Bft) 0 min 2,9 km/h (1 Bft)
08.02.2010 20:02 11,1 C -0,8 C 0,0 UV-I 0,0 C 44 % 84 % 0 % 1006,6 hPa 0,0 l/m 1,2 km/h (1 Bft) 0 min 0,0 km/h (0 Bft)
08.02.2010 20:04 11,1 C -0,8 C 0,0 UV-I 0,0 C 44 % 84 % 0 % 1006,6 hPa 0,0 l/m 0,8 km/h (0 Bft) 0 min 0,0 km/h (0 Bft)
08.02.2010 20:06 11,1 C -0,7 C 0,0 UV-I 0,0 C 44 % 84 % 0 % 1006,6 hPa 0,0 l/m 0,8 km/h (0 Bft) 0 min 0,0 km/h (0 Bft)
08.02.2010 20:08 11,1 C -0,8 C 0,0 UV-I 0,0 C 44 % 84 % 0 % 1006,6 hPa 0,0 l/m 0,8 km/h (0 Bft) 0 min 2,6 km/h (1 Bft)
08.02.2010 20:10 11,1 C -0,8 C 0,0 UV-I 0,0 C 44 % 84 % 0 % 1006,6 hPa 0,0 l/m 0,8 km/h (0 Bft) 0 min 3,6 km/h (1 Bft)
08.02.2010 20:12 11,1 C -0,8 C 0,0 UV-I 0,0 C 44 % 84 % 0 % 1006,5 hPa 0,0 l/m 0,8 km/h (0 Bft) 0 min 3,6 km/h (1 Bft)
08.02.2010 20:14 11,1 C -0,8 C 0,0 UV-I 0,0 C 44 % 84 % 0 % 1006,5 hPa 0,0 l/m 0,8 km/h (0 Bft) 0 min 3,1 km/h (1 Bft)
08.02.2010 20:16 11,1 C -0,8 C 0,0 UV-I 0,0 C 44 % 84 % 0 % 1006,5 hPa 0,0 l/m 0,8 km/h (0 Bft) 0 min 3,1 km/h (1 Bft)
08.02.2010 20:18 11,1 C -0,8 C 0,0 UV-I 0,0 C 44 % 84 % 0 % 1006,5 hPa 0,0 l/m 0,8 km/h (0 Bft) 0 min 2,6 km/h (1 Bft)
08.02.2010 20:22 11,1 C -0,8 C 0,0 UV-I 0,0 C 44 % 84 % 0 % 1006,5 hPa 0,0 l/m 0,8 km/h (0 Bft) 0 min 2,6 km/h (1 Bft)
08.02.2010 20:26 11,1 C -0,8 C 0,0 UV-I 0,0 C 44 % 84 % 0 % 1006,5 hPa 0,0 l/m 1,2 km/h (1 Bft) 0 min 0,0 km/h (0 Bft)
08.02.2010 20:28 11,1 C -0,8 C 0,0 UV-I 0,0 C 43 % 84 % 0 % 1006,5 hPa 0,0 l/m 1,2 km/h (1 Bft) 0 min 0,0 km/h (0 Bft)
08.02.2010 20:30 11,1 C -0,8 C 0,0 UV-I 0,0 C 43 % 84 % 0 % 1006,5 hPa 0,0 l/m 0,8 km/h (0 Bft) 0 min 0,0 km/h (0 Bft)
08.02.2010 20:32 11,1 C -0,8 C 0,0 UV-I 0,0 C 43 % 84 % 0 % 1006,3 hPa 0,0 l/m 0,4 km/h (0 Bft) 0 min 0,0 km/h (0 Bft)
08.02.2010 20:34 11,1 C -0,8 C 0,0 UV-I 0,0 C 43 % 84 % 0 % 1006,3 hPa 0,0 l/m 0,4 km/h (0 Bft) 0 min 0,0 km/h (0 Bft)
08.02.2010 20:38 11,1 C -0,8 C 0,0 UV-I 0,0 C 43 % 84 % 0 % 1006,3 hPa 0,0 l/m 0,0 km/h (0 Bft) 0 min 0,0 km/h (0 Bft)
08.02.2010 20:40 11,2 C -0,7 C 0,0 UV-I 0,0 C 44 % 84 % 0 % 1006,3 hPa 0,0 l/m 0,4 km/h (0 Bft) 0 min 0,0 km/h (0 Bft)
08.02.2010 20:42 11,1 C -0,8 C 0,0 UV-I 0,0 C 44 % 84 % 0 % 1006,3 hPa 0,0 l/m 0,4 km/h (0 Bft) 0 min 2,6 km/h (1 Bft)
08.02.2010 20:44 11,2 C -0,8 C 0,0 UV-I 0,0 C 43 % 84 % 0 % 1006,3 hPa 0,0 l/m 0,4 km/h (0 Bft) 0 min 0,0 km/h (0 Bft)
08.02.2010 20:48 11,2 C -0,8 C 0,0 UV-I 0,0 C 43 % 84 % 0 % 1006,3 hPa 0,0 l/m 0,8 km/h (0 Bft) 0 min 2,9 km/h (1 Bft)
08.02.2010 20:50 11,2 C -0,8 C 0,0 UV-I 0,0 C 43 % 84 % 0 % 1006,3 hPa 0,0 l/m 0,8 km/h (0 Bft) 0 min 2,9 km/h (1 Bft)
08.02.2010 20:54 11,2 C -0,9 C 0,0 UV-I 0,0 C 43 % 84 % 0 % 1006,4 hPa 0,0 l/m 1,2 km/h (1 Bft) 0 min 2,9 km/h (1 Bft)
08.02.2010 20:58 11,2 C -0,9 C 0,0 UV-I 0,0 C 43 % 84 % 0 % 1006,4 hPa 0,0 l/m 2,0 km/h (1 Bft) 0 min 4,8 km/h (1 Bft)
08.02.2010 21:02 11,2 C -0,9 C 0,0 UV-I 0,0 C 43 % 84 % 0 % 1006,4 hPa 0,0 l/m 1,6 km/h (1 Bft) 0 min 4,8 km/h (1 Bft)
08.02.2010 21:04 11,2 C -0,9 C 0,0 UV-I 0,0 C 43 % 84 % 0 % 1006,4 hPa 0,0 l/m 1,6 km/h (1 Bft) 0 min 0,0 km/h (0 Bft)
08.02.2010 21:10 11,1 C -0,9 C 0,0 UV-I 0,0 C 43 % 84 % 0 % 1006,4 hPa 0,0 l/m 1,2 km/h (1 Bft) 0 min 4,1 km/h (1 Bft)
08.02.2010 21:12 11,1 C -0,9 C 0,0 UV-I 0,0 C 43 % 84 % 0 % 1006,6 hPa 0,0 l/m 1,2 km/h (1 Bft) 0 min 0,0 km/h (0 Bft)
08.02.2010 21:14 11,2 C -0,9 C 0,0 UV-I 0,0 C 43 % 84 % 0 % 1006,6 hPa 0,0 l/m 1,2 km/h (1 Bft) 0 min 2,6 km/h (1 Bft)
08.02.2010 21:16 11,1 C -0,9 C 0,0 UV-I 0,0 C 43 % 84 % 0 % 1006,6 hPa 0,0 l/m 2,0 km/h (1 Bft) 0 min 0,0 km/h (0 Bft)
08.02.2010 21:18 11,1 C -0,9 C 0,0 UV-I 0,0 C 43 % 84 % 0 % 1006,6 hPa 0,0 l/m 2,0 km/h (1 Bft) 0 min 0,0 km/h (0 Bft)
08.02.2010 21:20 11,1 C -0,9 C 0,0 UV-I 0,0 C 43 % 84 % 0 % 1006,6 hPa 0,0 l/m 1,6 km/h (1 Bft) 0 min 3,8 km/h (1 Bft)
08.02.2010 21:22 11,1 C -0,9 C 0,0 UV-I 0,0 C 43 % 84 % 0 % 1006,6 hPa 0,0 l/m 2,0 km/h (1 Bft) 0 min 3,8 km/h (1 Bft)
08.02.2010 21:24 11,1 C -0,9 C 0,0 UV-I 0,0 C 43 % 84 % 0 % 1006,6 hPa 0,0 l/m 2,0 km/h (1 Bft) 0 min 3,4 km/h (1 Bft)
08.02.2010 21:26 11,1 C -0,9 C 0,0 UV-I 0,0 C 43 % 84 % 0 % 1006,6 hPa 0,0 l/m 2,0 km/h (1 Bft) 0 min 3,4 km/h (1 Bft)
08.02.2010 21:28 11,1 C -0,9 C 0,0 UV-I 0,0 C 43 % 84 % 0 % 1006,6 hPa 0,0 l/m 1,6 km/h (1 Bft) 0 min 3,4 km/h (1 Bft)
08.02.2010 21:32 11,1 C -0,9 C 0,0 UV-I 0,0 C 43 % 84 % 0 % 1006,3 hPa 0,0 l/m 1,6 km/h (1 Bft) 0 min 4,3 km/h (1 Bft)
08.02.2010 21:34 11,1 C -0,9 C 0,0 UV-I 0,0 C 43 % 84 % 0 % 1006,3 hPa 0,0 l/m 1,2 km/h (1 Bft) 0 min 2,9 km/h (1 Bft)
08.02.2010 21:38 11,1 C -0,9 C 0,0 UV-I 0,0 C 43 % 84 % 0 % 1006,3 hPa 0,0 l/m 0,8 km/h (0 Bft) 0 min 0,0 km/h (0 Bft)
08.02.2010 21:40 11,1 C -0,9 C 0,0 UV-I 0,0 C 43 % 84 % 0 % 1006,3 hPa 0,0 l/m 1,2 km/h (1 Bft) 0 min 4,6 km/h (1 Bft)
08.02.2010 21:42 11,1 C -0,9 C 0,0 UV-I 0,0 C 43 % 84 % 0 % 1006,3 hPa 0,0 l/m 0,8 km/h (0 Bft) 0 min 4,6 km/h (1 Bft)
08.02.2010 21:44 11,1 C -0,9 C 0,0 UV-I 0,0 C 43 % 84 % 0 % 1006,3 hPa 0,0 l/m 1,2 km/h (1 Bft) 0 min 0,0 km/h (0 Bft)
08.02.2010 21:48 11,1 C -0,9 C 0,0 UV-I 0,0 C 43 % 84 % 0 % 1006,3 hPa 0,0 l/m 1,2 km/h (1 Bft) 0 min 2,9 km/h (1 Bft)
08.02.2010 21:50 11,1 C -1,0 C 0,0 UV-I 0,0 C 43 % 84 % 0 % 1006,3 hPa 0,0 l/m 1,2 km/h (1 Bft) 0 min 0,0 km/h (0 Bft)
08.02.2010 21:52 11,1 C -1,0 C 0,0 UV-I 0,0 C 43 % 84 % 0 % 1006,5 hPa 0,0 l/m 0,8 km/h (0 Bft) 0 min 0,0 km/h (0 Bft)
08.02.2010 21:54 11,1 C -1,0 C 0,0 UV-I 0,0 C 43 % 84 % 0 % 1006,5 hPa 0,0 l/m 0,8 km/h (0 Bft) 0 min 2,6 km/h (1 Bft)
08.02.2010 21:56 11,1 C -0,9 C 0,0 UV-I 0,0 C 43 % 84 % 0 % 1006,5 hPa 0,0 l/m 0,4 km/h (0 Bft) 0 min 2,6 km/h (1 Bft)
08.02.2010 21:58 10,9 C -1,0 C 0,0 UV-I 0,0 C 43 % 84 % 0 % 1006,5 hPa 0,0 l/m 0,4 km/h (0 Bft) 0 min 3,6 km/h (1 Bft)
08.02.2010 22:02 11,0 C -0,9 C 0,0 UV-I 0,0 C 43 % 84 % 0 % 1006,5 hPa 0,0 l/m 1,2 km/h (1 Bft) 0 min 4,3 km/h (1 Bft)
08.02.2010 22:04 10,9 C -0,9 C 0,0 UV-I 0,0 C 43 % 84 % 0 % 1006,5 hPa 0,0 l/m 1,2 km/h (1 Bft) 0 min 0,0 km/h (0 Bft)
08.02.2010 22:06 11,0 C -0,9 C 0,0 UV-I 0,0 C 43 % 84 % 0 % 1006,5 hPa 0,0 l/m 1,2 km/h (1 Bft) 0 min 2,9 km/h (1 Bft)
08.02.2010 22:08 10,9 C -0,9 C 0,0 UV-I 0,0 C 43 % 84 % 0 % 1006,5 hPa 0,0 l/m 0,8 km/h (0 Bft) 0 min 2,9 km/h (1 Bft)
08.02.2010 22:10 10,9 C -0,9 C 0,0 UV-I 0,0 C 43 % 84 % 0 % 1006,5 hPa 0,0 l/m 0,8 km/h (0 Bft) 0 min 0,0 km/h (0 Bft)
08.02.2010 22:12 10,9 C -0,9 C 0,0 UV-I 0,0 C 43 % 84 % 0 % 1006,2 hPa 0,0 l/m 0,4 km/h (0 Bft) 0 min 0,0 km/h (0 Bft)
08.02.2010 22:14 10,9 C -0,9 C 0,0 UV-I 0,0 C 43 % 84 % 0 % 1006,2 hPa 0,0 l/m 0,4 km/h (0 Bft) 0 min 0,0 km/h (0 Bft)
08.02.2010 22:16 10,9 C -0,9 C 0,0 UV-I 0,0 C 43 % 84 % 0 % 1006,2 hPa 0,0 l/m 0,4 km/h (0 Bft) 0 min 3,4 km/h (1 Bft)
08.02.2010 22:18 11,0 C -0,9 C 0,0 UV-I 0,0 C 43 % 84 % 0 % 1006,2 hPa 0,0 l/m 0,4 km/h (0 Bft) 0 min 3,4 km/h (1 Bft)
08.02.2010 22:20 11,0 C -0,9 C 0,0 UV-I 0,0 C 43 % 84 % 0 % 1006,2 hPa 0,0 l/m 0,4 km/h (0 Bft) 0 min 0,0 km/h (0 Bft)
08.02.2010 22:22 11,0 C -0,9 C 0,0 UV-I 0,0 C 43 % 84 % 0 % 1006,2 hPa 0,0 l/m 0,4 km/h (0 Bft) 0 min 2,4 km/h (1 Bft)
08.02.2010 22:24 11,0 C -0,9 C 0,0 UV-I 0,0 C 43 % 84 % 0 % 1006,2 hPa 0,0 l/m 0,8 km/h (0 Bft) 0 min 2,4 km/h (1 Bft)
08.02.2010 22:28 11,0 C -0,9 C 0,0 UV-I 0,0 C 43 % 84 % 0 % 1006,2 hPa 0,0 l/m 0,8 km/h (0 Bft) 0 min 2,4 km/h (1 Bft)
08.02.2010 22:30 11,0 C -0,9 C 0,0 UV-I 0,0 C 43 % 84 % 0 % 1006,2 hPa 0,0 l/m 0,8 km/h (0 Bft) 0 min 2,4 km/h (1 Bft)
08.02.2010 22:32 11,0 C -0,9 C 0,0 UV-I 0,0 C 43 % 84 % 0 % 1006,1 hPa 0,0 l/m 0,4 km/h (0 Bft) 0 min 2,4 km/h (1 Bft)
08.02.2010 22:34 11,0 C -0,9 C 0,0 UV-I 0,0 C 43 % 84 % 0 % 1006,1 hPa 0,0 l/m 0,4 km/h (0 Bft) 0 min 0,0 km/h (0 Bft)
08.02.2010 22:38 11,0 C -0,9 C 0,0 UV-I 0,0 C 43 % 84 % 0 % 1006,1 hPa 0,0 l/m 0,4 km/h (0 Bft) 0 min 0,0 km/h (0 Bft)
08.02.2010 22:42 11,0 C -1,1 C 0,0 UV-I 0,0 C 43 % 83 % 0 % 1006,1 hPa 0,0 l/m 0,4 km/h (0 Bft) 0 min 0,0 km/h (0 Bft)
08.02.2010 22:44 11,0 C -0,9 C 0,0 UV-I 0,0 C 43 % 84 % 0 % 1006,1 hPa 0,0 l/m 0,4 km/h (0 Bft) 0 min 2,4 km/h (1 Bft)
08.02.2010 22:46 11,0 C -0,9 C 0,0 UV-I 0,0 C 43 % 84 % 0 % 1006,1 hPa 0,0 l/m 0,4 km/h (0 Bft) 0 min 2,4 km/h (1 Bft)
08.02.2010 22:48 11,0 C -0,9 C 0,0 UV-I 0,0 C 43 % 84 % 0 % 1006,1 hPa 0,0 l/m 0,4 km/h (0 Bft) 0 min 0,0 km/h (0 Bft)
08.02.2010 22:50 11,0 C -1,1 C 0,0 UV-I 0,0 C 43 % 84 % 0 % 1006,1 hPa 0,0 l/m 0,4 km/h (0 Bft) 0 min 0,0 km/h (0 Bft)
08.02.2010 22:52 11,0 C -1,1 C 0,0 UV-I 0,0 C 43 % 84 % 0 % 1005,9 hPa 0,0 l/m 0,8 km/h (0 Bft) 0 min 4,1 km/h (1 Bft)
08.02.2010 22:54 11,0 C -1,1 C 0,0 UV-I 0,0 C 43 % 83 % 0 % 1005,9 hPa 0,0 l/m 0,8 km/h (0 Bft) 0 min 2,6 km/h (1 Bft)
08.02.2010 22:56 11,0 C -1,1 C 0,0 UV-I 0,0 C 43 % 83 % 0 % 1005,9 hPa 0,0 l/m 0,8 km/h (0 Bft) 0 min 2,6 km/h (1 Bft)
08.02.2010 22:58 11,0 C -1,1 C 0,0 UV-I 0,0 C 43 % 83 % 0 % 1005,9 hPa 0,0 l/m 0,8 km/h (0 Bft) 0 min 0,0 km/h (0 Bft)
08.02.2010 23:00 11,0 C -1,1 C 0,0 UV-I 0,0 C 43 % 83 % 0 % 1005,9 hPa 0,0 l/m 0,8 km/h (0 Bft) 0 min 0,0 km/h (0 Bft)
08.02.2010 23:04 11,0 C -1,1 C 0,0 UV-I 0,0 C 43 % 83 % 0 % 1005,9 hPa 0,0 l/m 0,8 km/h (0 Bft) 0 min 3,8 km/h (1 Bft)
08.02.2010 23:06 11,0 C -1,1 C 0,0 UV-I 0,0 C 43 % 83 % 0 % 1005,9 hPa 0,0 l/m 0,8 km/h (0 Bft) 0 min 4,3 km/h (1 Bft)
08.02.2010 23:08 11,0 C -1,1 C 0,0 UV-I 0,0 C 43 % 83 % 0 % 1005,9 hPa 0,0 l/m 1,2 km/h (1 Bft) 0 min 4,3 km/h (1 Bft)
08.02.2010 23:10 11,0 C -1,1 C 0,0 UV-I 0,0 C 43 % 83 % 0 % 1005,9 hPa 0,0 l/m 1,6 km/h (1 Bft) 0 min 0,0 km/h (0 Bft)
08.02.2010 23:12 11,0 C -1,1 C 0,0 UV-I 0,0 C 43 % 83 % 0 % 1006,2 hPa 0,0 l/m 1,6 km/h (1 Bft) 0 min 0,0 km/h (0 Bft)
08.02.2010 23:14 11,0 C -1,2 C 0,0 UV-I 0,0 C 43 % 83 % 0 % 1006,2 hPa 0,0 l/m 1,2 km/h (1 Bft) 0 min 0,0 km/h (0 Bft)
08.02.2010 23:16 11,0 C -1,2 C 0,0 UV-I 0,0 C 43 % 83 % 0 % 1006,2 hPa 0,0 l/m 1,2 km/h (1 Bft) 0 min 0,0 km/h (0 Bft)
08.02.2010 23:20 10,8 C -1,2 C 0,0 UV-I 0,0 C 43 % 83 % 0 % 1006,2 hPa 0,0 l/m 1,2 km/h (1 Bft) 0 min 2,4 km/h (1 Bft)
08.02.2010 23:22 10,8 C -1,2 C 0,0 UV-I 0,0 C 43 % 83 % 0 % 1006,2 hPa 0,0 l/m 1,2 km/h (1 Bft) 0 min 3,8 km/h (1 Bft)
08.02.2010 23:24 10,8 C -1,2 C 0,0 UV-I 0,0 C 43 % 83 % 0 % 1006,2 hPa 0,0 l/m 1,2 km/h (1 Bft) 0 min 3,8 km/h (1 Bft)
08.02.2010 23:26 10,8 C -1,1 C 0,0 UV-I 0,0 C 43 % 83 % 0 % 1006,2 hPa 0,0 l/m 1,2 km/h (1 Bft) 0 min 3,1 km/h (1 Bft)
08.02.2010 23:28 10,8 C -1,2 C 0,0 UV-I 0,0 C 43 % 83 % 0 % 1006,2 hPa 0,0 l/m 1,2 km/h (1 Bft) 0 min 0,0 km/h (0 Bft)
08.02.2010 23:30 10,8 C -1,1 C 0,0 UV-I 0,0 C 43 % 83 % 0 % 1006,2 hPa 0,0 l/m 0,8 km/h (0 Bft) 0 min 0,0 km/h (0 Bft)
08.02.2010 23:34 10,8 C -1,1 C 0,0 UV-I 0,0 C 43 % 83 % 0 % 1005,9 hPa 0,0 l/m 0,8 km/h (0 Bft) 0 min 2,6 km/h (1 Bft)
08.02.2010 23:36 10,8 C -1,1 C 0,0 UV-I 0,0 C 43 % 83 % 0 % 1005,9 hPa 0,0 l/m 1,6 km/h (1 Bft) 0 min 4,1 km/h (1 Bft)
08.02.2010 23:38 10,8 C -1,3 C 0,0 UV-I 0,0 C 43 % 83 % 0 % 1005,9 hPa 0,0 l/m 1,6 km/h (1 Bft) 0 min 4,1 km/h (1 Bft)
08.02.2010 23:42 10,8 C -1,3 C 0,0 UV-I 0,0 C 43 % 83 % 0 % 1005,9 hPa 0,0 l/m 2,0 km/h (1 Bft) 0 min 2,4 km/h (1 Bft)
08.02.2010 23:44 10,8 C -1,3 C 0,0 UV-I 0,0 C 43 % 83 % 0 % 1005,9 hPa 0,0 l/m 1,6 km/h (1 Bft) 0 min 0,0 km/h (0 Bft)
08.02.2010 23:46 10,8 C -1,3 C 0,0 UV-I 0,0 C 43 % 83 % 0 % 1005,9 hPa 0,0 l/m 1,6 km/h (1 Bft) 0 min 0,0 km/h (0 Bft)
08.02.2010 23:48 10,9 C -1,3 C 0,0 UV-I 0,0 C 43 % 83 % 0 % 1005,9 hPa 0,0 l/m 0,8 km/h (0 Bft) 0 min 3,4 km/h (1 Bft)
08.02.2010 23:52 10,9 C -1,3 C 0,0 UV-I 0,0 C 43 % 83 % 0 % 1005,8 hPa 0,0 l/m 1,2 km/h (1 Bft) 0 min 3,4 km/h (1 Bft)
08.02.2010 23:54 10,9 C -1,3 C 0,0 UV-I 0,0 C 43 % 83 % 0 % 1005,8 hPa 0,0 l/m 0,8 km/h (0 Bft) 0 min 0,0 km/h (0 Bft)
08.02.2010 23:56 10,9 C -1,3 C 0,0 UV-I 0,0 C 43 % 83 % 0 % 1005,8 hPa 0,0 l/m 0,8 km/h (0 Bft) 0 min 0,0 km/h (0 Bft)
_ Min-Zeit 23:20 23:38 00:04 00:04 20:28 22:42 00:04 23:52 - 00:04 - 00:04
Minimum _ 10,8 C -1,3 C 0,0 UV-I 0,0 C 43 % 83 % 0 % 1005,8 hPa - 0,0 km/h (0 Bft) - 0,0 km/h (0 Bft)
_ Max-Zeit 00:04 00:04 11:52 11:54 00:04 00:04 11:54 00:54 00:04 10:28 00:04 10:32
Maximum _ 12,2 C 2,2 C 0,8 UV-I 0,4 C 51 % 93 % 11 % 1016,4 hPa 0,0 l/m 4,4 km/h
SO (1 Bft)
0 min 13,5 km/h
N-NO (3 Bft)
Durchschnitt _ 11,6 C 0,4 C 0,1 UV-I 0,0 C 47 % 88 % 0 % 1010,1 hPa #0,0 l/m 0,6 km/h (0 Bft) #0 min. 1,3 km/h (1 Bft)
© 2012 W. Hausmann